Time,TemperatureF,DewpointF,PressureIn,WindDirection,WindDirectionDegrees,WindSpeedMPH,WindSpeedGustMPH,Humidity,HourlyPrecipIn,Conditions,Clouds,dailyrainin,SoftwareType,DateUTC
2013-04-02 00:00:00,27.4,13.7,30.13,North,0,0.0,0.0,56,0.00,,,0.00,WUHU216HW,2013-04-02 05:00:00,
2013-04-02 00:02:00,27.4,13.7,30.13,North,0,0.0,0.0,56,0.00,,,0.00,WUHU216HW,2013-04-02 05:02:00,
2013-04-02 00:03:00,27.2,13.5,30.13,North,0,0.0,0.0,56,0.00,,,0.00,WUHU216HW,2013-04-02 05:03:00,
2013-04-02 00:06:00,27.2,13.5,30.13,North,0,0.0,0.0,56,0.00,,,0.00,WUHU216HW,2013-04-02 05:06:00,
2013-04-02 00:08:00,27.2,13.5,30.13,North,0,0.0,0.0,56,0.00,,,0.00,WUHU216HW,2013-04-02 05:08:00,
2013-04-02 00:12:00,27.2,13.5,30.13,North,0,0.0,0.0,56,0.00,,,0.00,WUHU216HW,2013-04-02 05:12:00,
2013-04-02 00:13:00,27.2,13.5,30.13,North,0,0.0,0.0,56,0.00,,,0.00,WUHU216HW,2013-04-02 05:13:00,
2013-04-02 00:17:00,27.4,14.0,30.13,North,0,0.0,0.0,57,0.00,,,0.00,WUHU216HW,2013-04-02 05:17:00,
2013-04-02 00:18:00,27.4,14.0,30.13,North,0,0.0,0.0,57,0.00,,,0.00,WUHU216HW,2013-04-02 05:18:00,
2013-04-02 00:19:00,27.4,14.0,30.13,North,0,0.0,0.0,57,0.00,,,0.00,WUHU216HW,2013-04-02 05:19:00,
2013-04-02 00:22:00,27.4,13.7,30.13,North,0,0.0,0.0,56,0.00,,,0.00,WUHU216HW,2013-04-02 05:22:00,
2013-04-02 00:23:00,27.4,13.7,30.13,North,0,0.0,0.0,56,0.00,,,0.00,WUHU216HW,2013-04-02 05:23:00,
2013-04-02 00:28:00,27.4,14.0,30.13,North,0,0.0,0.0,57,0.00,,,0.00,WUHU216HW,2013-04-02 05:28:00,
2013-04-02 00:29:00,27.4,14.0,30.13,North,0,0.0,0.0,57,0.00,,,0.00,WUHU216HW,2013-04-02 05:29:00,
2013-04-02 00:33:00,27.2,13.9,30.13,North,0,0.0,0.0,57,0.00,,,0.00,WUHU216HW,2013-04-02 05:33:00,
2013-04-02 00:34:00,27.2,13.9,30.14,North,0,0.0,0.0,57,0.00,,,0.00,WUHU216HW,2013-04-02 05:34:00,
2013-04-02 00:38:00,27.0,13.7,30.14,North,0,0.0,0.0,57,0.00,,,0.00,WUHU216HW,2013-04-02 05:38:00,
2013-04-02 00:39:00,27.0,13.7,30.13,North,0,0.0,0.0,57,0.00,,,0.00,WUHU216HW,2013-04-02 05:39:00,
2013-04-02 00:43:00,27.0,13.7,30.14,North,0,0.0,0.0,57,0.00,,,0.00,WUHU216HW,2013-04-02 05:43:00,
2013-04-02 00:44:00,27.0,13.7,30.14,North,0,0.0,0.0,57,0.00,,,0.00,WUHU216HW,2013-04-02 05:44:00,
2013-04-02 00:48:00,27.0,13.7,30.14,North,0,0.0,0.0,57,0.00,,,0.00,WUHU216HW,2013-04-02 05:48:00,
2013-04-02 00:49:00,27.0,13.7,30.14,North,0,0.0,0.0,57,0.00,,,0.00,WUHU216HW,2013-04-02 05:49:00,
2013-04-02 00:53:00,26.8,13.5,30.14,North,0,0.0,0.0,57,0.00,,,0.00,WUHU216HW,2013-04-02 05:53:00,
2013-04-02 00:54:00,26.8,13.5,30.14,North,0,0.0,0.0,57,0.00,,,0.00,WUHU216HW,2013-04-02 05:54:00,
2013-04-02 00:58:00,26.8,13.5,30.14,North,0,0.0,0.0,57,0.00,,,0.00,WUHU216HW,2013-04-02 05:58:00,
2013-04-02 00:59:00,26.8,13.5,30.14,North,0,0.0,0.0,57,0.00,,,0.00,WUHU216HW,2013-04-02 05:59:00,
2013-04-02 01:03:00,26.6,13.8,30.14,North,0,0.0,0.0,58,0.00,,,0.00,WUHU216HW,2013-04-02 06:03:00,
2013-04-02 01:04:00,26.6,13.8,30.14,North,0,0.0,0.0,58,0.00,,,0.00,WUHU216HW,2013-04-02 06:04:00,
2013-04-02 01:05:00,26.6,13.8,30.14,North,0,0.0,0.0,58,0.00,,,0.00,WUHU216HW,2013-04-02 06:05:00,
2013-04-02 01:08:00,26.6,13.8,30.14,North,0,0.0,0.0,58,0.00,,,0.00,WUHU216HW,2013-04-02 06:08:00,
2013-04-02 01:09:00,26.6,13.8,30.14,North,0,0.0,0.0,58,0.00,,,0.00,WUHU216HW,2013-04-02 06:09:00,
2013-04-02 01:10:00,26.6,13.8,30.14,North,0,0.0,0.0,58,0.00,,,0.00,WUHU216HW,2013-04-02 06:10:00,
2013-04-02 01:13:00,26.5,13.6,30.14,North,0,0.0,0.0,58,0.00,,,0.00,WUHU216HW,2013-04-02 06:13:00,
2013-04-02 01:14:00,26.5,13.6,30.14,North,0,0.0,0.0,58,0.00,,,0.00,WUHU216HW,2013-04-02 06:14:00,
2013-04-02 01:16:00,26.3,13.4,30.14,North,0,0.0,0.0,58,0.00,,,0.00,WUHU216HW,2013-04-02 06:16:00,
2013-04-02 01:18:00,26.3,13.4,30.15,North,0,0.0,0.0,58,0.00,,,0.00,WUHU216HW,2013-04-02 06:18:00,
2013-04-02 01:19:00,26.3,13.4,30.15,North,0,0.0,0.0,58,0.00,,,0.00,WUHU216HW,2013-04-02 06:19:00,
2013-04-02 01:20:00,26.3,13.4,30.15,North,0,0.0,0.0,58,0.00,,,0.00,WUHU216HW,2013-04-02 06:20:00,
2013-04-02 01:21:00,26.3,13.4,30.15,North,0,0.0,0.0,58,0.00,,,0.00,WUHU216HW,2013-04-02 06:21:00,
2013-04-02 01:23:00,26.3,13.4,30.15,North,0,0.0,0.0,58,0.00,,,0.00,WUHU216HW,2013-04-02 06:23:00,
2013-04-02 01:24:00,26.3,13.4,30.15,North,0,0.0,0.0,58,0.00,,,0.00,WUHU216HW,2013-04-02 06:24:00,
2013-04-02 01:25:00,26.3,13.4,30.14,North,0,0.0,0.0,58,0.00,,,0.00,WUHU216HW,2013-04-02 06:25:00,
2013-04-02 01:27:00,26.3,13.4,30.14,North,0,0.0,0.0,58,0.00,,,0.00,WUHU216HW,2013-04-02 06:27:00,
2013-04-02 01:28:00,26.3,13.9,30.15,North,0,0.0,0.0,59,0.00,,,0.00,WUHU216HW,2013-04-02 06:28:00,
2013-04-02 01:30:00,26.3,13.9,30.15,North,0,0.0,0.0,59,0.00,,,0.00,WUHU216HW,2013-04-02 06:30:00,
2013-04-02 01:32:00,26.3,13.9,30.15,North,0,0.0,0.0,59,0.00,,,0.00,WUHU216HW,2013-04-02 06:32:00,
2013-04-02 01:34:00,26.3,13.9,30.14,North,0,0.0,0.0,59,0.00,,,0.00,WUHU216HW,2013-04-02 06:34:00,
2013-04-02 01:35:00,26.3,13.9,30.14,North,0,0.0,0.0,59,0.00,,,0.00,WUHU216HW,2013-04-02 06:35:00,
2013-04-02 01:37:00,26.3,13.9,30.15,North,0,0.0,0.0,59,0.00,,,0.00,WUHU216HW,2013-04-02 06:37:00,
2013-04-02 01:39:00,26.3,13.9,30.14,North,0,0.0,0.0,59,0.00,,,0.00,WUHU216HW,2013-04-02 06:39:00,
2013-04-02 01:40:00,26.3,13.9,30.14,North,0,0.0,0.0,59,0.00,,,0.00,WUHU216HW,2013-04-02 06:40:00,
2013-04-02 01:41:00,26.3,13.9,30.14,North,0,0.0,0.0,59,0.00,,,0.00,WUHU216HW,2013-04-02 06:41:00,
2013-04-02 01:42:00,26.3,13.9,30.14,North,0,0.0,0.0,59,0.00,,,0.00,WUHU216HW,2013-04-02 06:42:00,
2013-04-02 01:44:00,26.5,14.1,30.14,North,0,0.0,0.0,59,0.00,,,0.00,WUHU216HW,2013-04-02 06:44:00,
2013-04-02 01:45:00,26.5,14.1,30.14,North,0,0.0,0.0,59,0.00,,,0.00,WUHU216HW,2013-04-02 06:45:00,
2013-04-02 01:46:00,26.5,14.1,30.14,North,0,0.0,0.0,59,0.00,,,0.00,WUHU216HW,2013-04-02 06:46:00,
2013-04-02 01:47:00,26.3,13.9,30.14,North,0,0.0,0.0,59,0.00,,,0.00,WUHU216HW,2013-04-02 06:47:00,
2013-04-02 01:49:00,26.3,13.9,30.14,North,0,0.0,0.0,59,0.00,,,0.00,WUHU216HW,2013-04-02 06:49:00,
2013-04-02 01:50:00,26.3,13.9,30.14,North,0,0.0,0.0,59,0.00,,,0.00,WUHU216HW,2013-04-02 06:50:00,
2013-04-02 01:51:00,26.3,13.9,30.14,North,0,0.0,0.0,59,0.00,,,0.00,WUHU216HW,2013-04-02 06:51:00,
2013-04-02 01:52:00,26.1,13.7,30.14,North,0,0.0,0.0,59,0.00,,,0.00,WUHU216HW,2013-04-02 06:52:00,
2013-04-02 01:54:00,26.1,13.7,30.14,North,0,0.0,0.0,59,0.00,,,0.00,WUHU216HW,2013-04-02 06:54:00,
2013-04-02 01:55:00,26.1,13.7,30.14,North,0,0.0,0.0,59,0.00,,,0.00,WUHU216HW,2013-04-02 06:55:00,
2013-04-02 01:56:00,26.1,13.7,30.14,North,0,0.0,0.0,59,0.00,,,0.00,WUHU216HW,2013-04-02 06:56:00,
2013-04-02 01:58:00,25.9,13.5,30.14,North,0,0.0,0.0,59,0.00,,,0.00,WUHU216HW,2013-04-02 06:58:00,
2013-04-02 01:59:00,25.9,13.5,30.14,North,0,0.0,0.0,59,0.00,,,0.00,WUHU216HW,2013-04-02 06:59:00,
2013-04-02 02:00:00,25.9,13.5,30.14,North,0,0.0,0.0,59,0.00,,,0.00,WUHU216HW,2013-04-02 07:00:00,
2013-04-02 02:01:00,25.9,13.5,30.14,North,0,0.0,0.0,59,0.00,,,0.00,WUHU216HW,2013-04-02 07:01:00,
2013-04-02 02:03:00,25.9,13.5,30.14,North,0,0.0,0.0,59,0.00,,,0.00,WUHU216HW,2013-04-02 07:03:00,
2013-04-02 02:04:00,25.7,13.3,30.14,North,0,0.0,0.0,59,0.00,,,0.00,WUHU216HW,2013-04-02 07:04:00,
2013-04-02 02:06:00,25.7,13.3,30.14,North,0,0.0,0.0,59,0.00,,,0.00,WUHU216HW,2013-04-02 07:06:00,
2013-04-02 02:08:00,25.7,13.3,30.14,North,0,0.0,0.0,59,0.00,,,0.00,WUHU216HW,2013-04-02 07:08:00,
2013-04-02 02:09:00,25.7,13.3,30.14,North,0,0.0,0.0,59,0.00,,,0.00,WUHU216HW,2013-04-02 07:09:00,
2013-04-02 02:11:00,25.7,13.3,30.14,North,0,0.0,0.0,59,0.00,,,0.00,WUHU216HW,2013-04-02 07:11:00,
2013-04-02 02:13:00,25.6,13.2,30.14,North,0,0.0,0.0,59,0.00,,,0.00,WUHU216HW,2013-04-02 07:13:00,
2013-04-02 02:14:00,25.6,13.2,30.14,North,0,0.0,0.0,59,0.00,,,0.00,WUHU216HW,2013-04-02 07:14:00,
2013-04-02 02:16:00,25.6,13.2,30.14,North,0,0.0,0.0,59,0.00,,,0.00,WUHU216HW,2013-04-02 07:16:00,
2013-04-02 02:17:00,25.6,13.2,30.14,North,0,0.0,0.0,59,0.00,,,0.00,WUHU216HW,2013-04-02 07:17:00,
2013-04-02 02:18:00,25.6,13.2,30.14,North,0,0.0,0.0,59,0.00,,,0.00,WUHU216HW,2013-04-02 07:18:00,
2013-04-02 02:19:00,25.6,13.2,30.14,North,0,0.0,0.0,59,0.00,,,0.00,WUHU216HW,2013-04-02 07:19:00,
2013-04-02 02:22:00,25.6,13.2,30.14,North,0,0.0,0.0,59,0.00,,,0.00,WUHU216HW,2013-04-02 07:22:00,
2013-04-02 02:23:00,25.6,13.6,30.14,North,0,0.0,0.0,60,0.00,,,0.00,WUHU216HW,2013-04-02 07:23:00,
2013-04-02 02:25:00,25.4,13.4,30.14,North,0,0.0,0.0,60,0.00,,,0.00,WUHU216HW,2013-04-02 07:25:00,
2013-04-02 02:27:00,25.4,13.4,30.14,North,0,0.0,0.0,60,0.00,,,0.00,WUHU216HW,2013-04-02 07:27:00,
2013-04-02 02:29:00,25.4,13.4,30.14,North,0,0.0,0.0,60,0.00,,,0.00,WUHU216HW,2013-04-02 07:29:00,
2013-04-02 02:30:00,25.2,13.3,30.14,North,0,0.0,0.0,60,0.00,,,0.00,WUHU216HW,2013-04-02 07:30:00,
2013-04-02 02:32:00,25.2,13.3,30.14,North,0,0.0,0.0,60,0.00,,,0.00,WUHU216HW,2013-04-02 07:32:00,
2013-04-02 02:34:00,25.0,13.2,30.14,North,0,0.0,0.0,60,0.00,,,0.00,WUHU216HW,2013-04-02 07:34:00,
2013-04-02 02:35:00,25.0,13.2,30.14,North,0,0.0,0.0,60,0.00,,,0.00,WUHU216HW,2013-04-02 07:35:00,
2013-04-02 02:37:00,24.8,13.0,30.14,North,0,0.0,0.0,60,0.00,,,0.00,WUHU216HW,2013-04-02 07:37:00,
2013-04-02 02:38:00,24.8,13.0,30.14,North,0,0.0,0.0,60,0.00,,,0.00,WUHU216HW,2013-04-02 07:38:00,
2013-04-02 02:39:00,24.8,13.3,30.14,North,0,0.0,0.0,61,0.00,,,0.00,WUHU216HW,2013-04-02 07:39:00,
2013-04-02 02:40:00,24.8,13.3,30.14,North,0,0.0,0.0,61,0.00,,,0.00,WUHU216HW,2013-04-02 07:40:00,
2013-04-02 02:42:00,24.8,13.3,30.14,North,0,0.0,0.0,61,0.00,,,0.00,WUHU216HW,2013-04-02 07:42:00,
2013-04-02 02:43:00,24.8,13.3,30.14,North,0,0.0,0.0,61,0.00,,,0.00,WUHU216HW,2013-04-02 07:43:00,
2013-04-02 02:44:00,24.7,13.2,30.14,North,0,0.0,0.0,61,0.00,,,0.00,WUHU216HW,2013-04-02 07:44:00,
2013-04-02 02:45:00,24.7,13.2,30.14,North,0,0.0,0.0,61,0.00,,,0.00,WUHU216HW,2013-04-02 07:45:00,
2013-04-02 02:47:00,24.7,13.2,30.14,North,0,0.0,0.0,61,0.00,,,0.00,WUHU216HW,2013-04-02 07:47:00,
2013-04-02 02:48:00,24.7,13.2,30.14,North,0,0.0,0.0,61,0.00,,,0.00,WUHU216HW,2013-04-02 07:48:00,
2013-04-02 02:49:00,24.7,13.2,30.14,North,0,0.0,0.0,61,0.00,,,0.00,WUHU216HW,2013-04-02 07:49:00,
2013-04-02 02:50:00,24.8,13.3,30.14,North,0,0.0,0.0,61,0.00,,,0.00,WUHU216HW,2013-04-02 07:50:00,
2013-04-02 02:52:00,24.8,13.3,30.14,North,0,0.0,0.0,61,0.00,,,0.00,WUHU216HW,2013-04-02 07:52:00,
2013-04-02 02:53:00,24.8,13.3,30.14,North,0,0.0,0.0,61,0.00,,,0.00,WUHU216HW,2013-04-02 07:53:00,
2013-04-02 02:54:00,24.8,13.3,30.14,North,0,0.0,0.0,61,0.00,,,0.00,WUHU216HW,2013-04-02 07:54:00,
2013-04-02 02:55:00,24.8,13.3,30.14,North,0,0.0,0.0,61,0.00,,,0.00,WUHU216HW,2013-04-02 07:55:00,
2013-04-02 02:58:00,24.8,13.3,30.14,North,0,0.0,0.0,61,0.00,,,0.00,WUHU216HW,2013-04-02 07:58:00,
2013-04-02 03:00:00,24.8,13.3,30.14,North,0,0.0,0.0,61,0.00,,,0.00,WUHU216HW,2013-04-02 08:00:00,
2013-04-02 03:03:00,24.8,13.3,30.13,North,0,0.0,0.0,61,0.00,,,0.00,WUHU216HW,2013-04-02 08:03:00,
2013-04-02 03:05:00,24.8,13.3,30.14,North,0,0.0,0.0,61,0.00,,,0.00,WUHU216HW,2013-04-02 08:05:00,
2013-04-02 03:06:00,24.8,13.3,30.14,North,0,0.0,0.0,61,0.00,,,0.00,WUHU216HW,2013-04-02 08:06:00,
2013-04-02 03:08:00,24.8,13.3,30.14,North,0,0.0,0.0,61,0.00,,,0.00,WUHU216HW,2013-04-02 08:08:00,
2013-04-02 03:10:00,24.8,13.3,30.14,North,0,0.0,0.0,61,0.00,,,0.00,WUHU216HW,2013-04-02 08:10:00,
2013-04-02 03:12:00,24.7,13.2,30.14,North,0,0.0,0.0,61,0.00,,,0.00,WUHU216HW,2013-04-02 08:12:00,
2013-04-02 03:13:00,24.7,13.5,30.14,North,0,0.0,0.0,62,0.00,,,0.00,WUHU216HW,2013-04-02 08:13:00,
2013-04-02 03:15:00,24.7,13.5,30.14,North,0,0.0,0.0,62,0.00,,,0.00,WUHU216HW,2013-04-02 08:15:00,
2013-04-02 03:17:00,24.7,13.5,30.14,North,0,0.0,0.0,62,0.00,,,0.00,WUHU216HW,2013-04-02 08:17:00,
2013-04-02 03:19:00,24.5,13.3,30.14,North,0,0.0,0.0,62,0.00,,,0.00,WUHU216HW,2013-04-02 08:19:00,
2013-04-02 03:20:00,24.5,13.3,30.14,North,0,0.0,0.0,62,0.00,,,0.00,WUHU216HW,2013-04-02 08:20:00,
2013-04-02 03:22:00,24.5,13.3,30.14,North,0,0.0,0.0,62,0.00,,,0.00,WUHU216HW,2013-04-02 08:22:00,
2013-04-02 03:24:00,24.3,13.2,30.14,North,0,0.0,0.0,62,0.00,,,0.00,WUHU216HW,2013-04-02 08:24:00,
2013-04-02 03:25:00,24.3,13.2,30.14,North,0,0.0,0.0,62,0.00,,,0.00,WUHU216HW,2013-04-02 08:25:00,
2013-04-02 03:27:00,24.3,13.2,30.14,North,0,0.0,0.0,62,0.00,,,0.00,WUHU216HW,2013-04-02 08:27:00,
2013-04-02 03:29:00,24.3,13.2,30.14,North,0,0.0,0.0,62,0.00,,,0.00,WUHU216HW,2013-04-02 08:29:00,
2013-04-02 03:30:00,24.1,13.0,30.14,North,0,0.0,0.0,62,0.00,,,0.00,WUHU216HW,2013-04-02 08:30:00,
2013-04-02 03:32:00,24.1,13.0,30.14,North,0,0.0,0.0,62,0.00,,,0.00,WUHU216HW,2013-04-02 08:32:00,
2013-04-02 03:34:00,24.1,13.0,30.14,North,0,0.0,0.0,62,0.00,,,0.00,WUHU216HW,2013-04-02 08:34:00,
2013-04-02 03:35:00,24.1,13.3,30.14,North,0,0.0,0.0,63,0.00,,,0.00,WUHU216HW,2013-04-02 08:35:00,
2013-04-02 03:37:00,24.1,13.3,30.14,North,0,0.0,0.0,63,0.00,,,0.00,WUHU216HW,2013-04-02 08:37:00,
2013-04-02 03:39:00,24.1,13.3,30.14,North,0,0.0,0.0,63,0.00,,,0.00,WUHU216HW,2013-04-02 08:39:00,
2013-04-02 03:40:00,24.1,13.3,30.14,North,0,0.0,0.0,63,0.00,,,0.00,WUHU216HW,2013-04-02 08:40:00,
2013-04-02 03:42:00,24.1,13.3,30.14,North,0,0.0,0.0,63,0.00,,,0.00,WUHU216HW,2013-04-02 08:42:00,
2013-04-02 03:44:00,23.9,13.2,30.14,North,0,0.0,0.0,63,0.00,,,0.00,WUHU216HW,2013-04-02 08:44:00,
2013-04-02 03:46:00,23.9,13.2,30.14,North,0,0.0,0.0,63,0.00,,,0.00,WUHU216HW,2013-04-02 08:46:00,
2013-04-02 03:47:00,23.9,13.2,30.14,North,0,0.0,0.0,63,0.00,,,0.00,WUHU216HW,2013-04-02 08:47:00,
2013-04-02 03:49:00,23.9,13.2,30.14,North,0,0.0,0.0,63,0.00,,,0.00,WUHU216HW,2013-04-02 08:49:00,
2013-04-02 03:50:00,23.9,13.2,30.14,North,0,0.0,0.0,63,0.00,,,0.00,WUHU216HW,2013-04-02 08:50:00,
2013-04-02 03:51:00,23.8,13.0,30.14,North,0,0.0,0.0,63,0.00,,,0.00,WUHU216HW,2013-04-02 08:51:00,
2013-04-02 03:53:00,23.8,13.0,30.14,North,0,0.0,0.0,63,0.00,,,0.00,WUHU216HW,2013-04-02 08:53:00,
2013-04-02 03:54:00,23.8,13.0,30.14,North,0,0.0,0.0,63,0.00,,,0.00,WUHU216HW,2013-04-02 08:54:00,
2013-04-02 03:55:00,23.8,13.0,30.14,North,0,0.0,0.0,63,0.00,,,0.00,WUHU216HW,2013-04-02 08:55:00,
2013-04-02 03:56:00,23.8,13.0,30.14,North,0,0.0,0.0,63,0.00,,,0.00,WUHU216HW,2013-04-02 08:56:00,
2013-04-02 03:58:00,23.8,13.0,30.14,North,0,0.0,0.0,63,0.00,,,0.00,WUHU216HW,2013-04-02 08:58:00,
2013-04-02 03:59:00,23.8,13.3,30.14,North,0,0.0,0.0,64,0.00,,,0.00,WUHU216HW,2013-04-02 08:59:00,
2013-04-02 04:00:00,23.8,13.3,30.14,North,0,0.0,0.0,64,0.00,,,0.00,WUHU216HW,2013-04-02 09:00:00,
2013-04-02 04:02:00,23.8,13.3,30.14,North,0,0.0,0.0,64,0.00,,,0.00,WUHU216HW,2013-04-02 09:02:00,
2013-04-02 04:03:00,23.8,13.3,30.14,North,0,0.0,0.0,64,0.00,,,0.00,WUHU216HW,2013-04-02 09:03:00,
2013-04-02 04:04:00,23.9,13.5,30.14,North,0,0.0,0.0,64,0.00,,,0.00,WUHU216HW,2013-04-02 09:04:00,
2013-04-02 04:05:00,23.9,13.5,30.14,North,0,0.0,0.0,64,0.00,,,0.00,WUHU216HW,2013-04-02 09:05:00,
2013-04-02 04:07:00,23.9,13.5,30.14,North,0,0.0,0.0,64,0.00,,,0.00,WUHU216HW,2013-04-02 09:07:00,
2013-04-02 04:08:00,23.9,13.5,30.14,North,0,0.0,0.0,64,0.00,,,0.00,WUHU216HW,2013-04-02 09:08:00,
2013-04-02 04:09:00,24.1,13.7,30.14,North,0,0.0,0.0,64,0.00,,,0.00,WUHU216HW,2013-04-02 09:09:00,
2013-04-02 04:10:00,24.1,13.7,30.14,North,0,0.0,0.0,64,0.00,,,0.00,WUHU216HW,2013-04-02 09:10:00,
2013-04-02 04:12:00,24.1,13.7,30.14,North,0,0.0,0.0,64,0.00,,,0.00,WUHU216HW,2013-04-02 09:12:00,
2013-04-02 04:13:00,24.1,13.7,30.14,North,0,0.0,0.0,64,0.00,,,0.00,WUHU216HW,2013-04-02 09:13:00,
2013-04-02 04:15:00,24.1,13.7,30.14,North,0,0.0,0.0,64,0.00,,,0.00,WUHU216HW,2013-04-02 09:15:00,
2013-04-02 04:17:00,24.1,13.7,30.14,North,0,0.0,0.0,64,0.00,,,0.00,WUHU216HW,2013-04-02 09:17:00,
2013-04-02 04:18:00,24.1,13.7,30.14,North,0,0.0,0.0,64,0.00,,,0.00,WUHU216HW,2013-04-02 09:18:00,
2013-04-02 04:20:00,24.1,13.7,30.14,North,0,0.0,0.0,64,0.00,,,0.00,WUHU216HW,2013-04-02 09:20:00,
2013-04-02 04:22:00,23.9,13.5,30.14,North,0,0.0,0.0,64,0.00,,,0.00,WUHU216HW,2013-04-02 09:22:00,
2013-04-02 04:24:00,23.9,13.5,30.14,North,0,0.0,0.0,64,0.00,,,0.00,WUHU216HW,2013-04-02 09:24:00,
2013-04-02 04:25:00,23.9,13.5,30.14,North,0,0.0,0.0,64,0.00,,,0.00,WUHU216HW,2013-04-02 09:25:00,
2013-04-02 04:26:00,23.9,13.5,30.14,North,0,0.0,0.0,64,0.00,,,0.00,WUHU216HW,2013-04-02 09:26:00,
2013-04-02 04:27:00,23.9,13.5,30.14,North,0,0.0,0.0,64,0.00,,,0.00,WUHU216HW,2013-04-02 09:27:00,
2013-04-02 04:29:00,23.9,13.5,30.14,North,0,0.0,0.0,64,0.00,,,0.00,WUHU216HW,2013-04-02 09:29:00,
2013-04-02 04:30:00,23.9,13.5,30.14,North,0,0.0,0.0,64,0.00,,,0.00,WUHU216HW,2013-04-02 09:30:00,
2013-04-02 04:31:00,23.9,13.5,30.14,North,0,0.0,0.0,64,0.00,,,0.00,WUHU216HW,2013-04-02 09:31:00,
2013-04-02 04:33:00,23.9,13.5,30.15,North,0,0.0,0.0,64,0.00,,,0.00,WUHU216HW,2013-04-02 09:33:00,
2013-04-02 04:34:00,23.9,13.5,30.14,North,0,0.0,0.0,64,0.00,,,0.00,WUHU216HW,2013-04-02 09:34:00,
2013-04-02 04:35:00,23.9,13.5,30.15,North,0,0.0,0.0,64,0.00,,,0.00,WUHU216HW,2013-04-02 09:35:00,
2013-04-02 04:36:00,23.9,13.5,30.14,North,0,0.0,0.0,64,0.00,,,0.00,WUHU216HW,2013-04-02 09:36:00,
2013-04-02 04:38:00,23.9,13.5,30.15,North,0,0.0,0.0,64,0.00,,,0.00,WUHU216HW,2013-04-02 09:38:00,
2013-04-02 04:39:00,23.9,13.5,30.14,North,0,0.0,0.0,64,0.00,,,0.00,WUHU216HW,2013-04-02 09:39:00,
2013-04-02 04:40:00,23.9,13.5,30.14,North,0,0.0,0.0,64,0.00,,,0.00,WUHU216HW,2013-04-02 09:40:00,
2013-04-02 04:41:00,23.9,13.5,30.14,North,0,0.0,0.0,64,0.00,,,0.00,WUHU216HW,2013-04-02 09:41:00,
2013-04-02 04:43:00,23.8,13.7,30.14,North,0,0.0,0.0,65,0.00,,,0.00,WUHU216HW,2013-04-02 09:43:00,
2013-04-02 04:44:00,23.8,13.7,30.14,North,0,0.0,0.0,65,0.00,,,0.00,WUHU216HW,2013-04-02 09:44:00,
2013-04-02 04:45:00,23.8,13.7,30.14,North,0,0.0,0.0,65,0.00,,,0.00,WUHU216HW,2013-04-02 09:45:00,
2013-04-02 04:46:00,23.8,13.7,30.14,North,0,0.0,0.0,65,0.00,,,0.00,WUHU216HW,2013-04-02 09:46:00,
2013-04-02 04:48:00,23.8,13.7,30.15,North,0,0.0,0.0,65,0.00,,,0.00,WUHU216HW,2013-04-02 09:48:00,
2013-04-02 04:49:00,23.8,13.7,30.14,North,0,0.0,0.0,65,0.00,,,0.00,WUHU216HW,2013-04-02 09:49:00,
2013-04-02 04:50:00,23.8,13.7,30.15,North,0,0.0,0.0,65,0.00,,,0.00,WUHU216HW,2013-04-02 09:50:00,
2013-04-02 04:51:00,23.8,13.7,30.15,North,0,0.0,0.0,65,0.00,,,0.00,WUHU216HW,2013-04-02 09:51:00,
2013-04-02 04:53:00,23.8,13.7,30.15,North,0,0.0,0.0,65,0.00,,,0.00,WUHU216HW,2013-04-02 09:53:00,
2013-04-02 04:54:00,23.8,13.7,30.14,North,0,0.0,0.0,65,0.00,,,0.00,WUHU216HW,2013-04-02 09:54:00,
2013-04-02 04:55:00,23.8,13.7,30.14,North,0,0.0,0.0,65,0.00,,,0.00,WUHU216HW,2013-04-02 09:55:00,
2013-04-02 04:57:00,23.8,13.7,30.15,North,0,0.0,0.0,65,0.00,,,0.00,WUHU216HW,2013-04-02 09:57:00,
2013-04-02 04:58:00,23.9,13.9,30.15,North,0,0.0,0.0,65,0.00,,,0.00,WUHU216HW,2013-04-02 09:58:00,
2013-04-02 04:59:00,23.8,13.7,30.15,North,0,0.0,0.0,65,0.00,,,0.00,WUHU216HW,2013-04-02 09:59:00,
2013-04-02 05:00:00,23.8,13.7,30.15,North,0,0.0,0.0,65,0.00,,,0.00,WUHU216HW,2013-04-02 10:00:00,
2013-04-02 05:03:00,23.8,13.7,30.15,North,0,0.0,0.0,65,0.00,,,0.00,WUHU216HW,2013-04-02 10:03:00,
2013-04-02 05:04:00,23.8,13.7,30.15,North,0,0.0,0.0,65,0.00,,,0.00,WUHU216HW,2013-04-02 10:04:00,
2013-04-02 05:05:00,23.8,13.7,30.15,North,0,0.0,0.0,65,0.00,,,0.00,WUHU216HW,2013-04-02 10:05:00,
2013-04-02 05:08:00,23.8,13.7,30.15,North,0,0.0,0.0,65,0.00,,,0.00,WUHU216HW,2013-04-02 10:08:00,
2013-04-02 05:09:00,23.6,13.5,30.15,North,0,0.0,0.0,65,0.00,,,0.00,WUHU216HW,2013-04-02 10:09:00,
2013-04-02 05:10:00,23.6,13.5,30.15,North,0,0.0,0.0,65,0.00,,,0.00,WUHU216HW,2013-04-02 10:10:00,
2013-04-02 05:13:00,23.6,13.5,30.15,North,0,0.0,0.0,65,0.00,,,0.00,WUHU216HW,2013-04-02 10:13:00,
2013-04-02 05:15:00,23.6,13.5,30.15,North,0,0.0,0.0,65,0.00,,,0.00,WUHU216HW,2013-04-02 10:15:00,
2013-04-02 05:18:00,23.6,13.5,30.15,North,0,0.0,0.0,65,0.00,,,0.00,WUHU216HW,2013-04-02 10:18:00,
2013-04-02 05:19:00,23.6,13.5,30.15,North,0,0.0,0.0,65,0.00,,,0.00,WUHU216HW,2013-04-02 10:19:00,
2013-04-02 05:20:00,23.6,13.9,30.15,North,0,0.0,0.0,66,0.00,,,0.00,WUHU216HW,2013-04-02 10:20:00,
2013-04-02 05:23:00,23.6,13.9,30.15,North,0,0.0,0.0,66,0.00,,,0.00,WUHU216HW,2013-04-02 10:23:00,
2013-04-02 05:24:00,23.6,13.9,30.15,North,0,0.0,0.0,66,0.00,,,0.00,WUHU216HW,2013-04-02 10:24:00,
2013-04-02 05:25:00,23.6,13.9,30.15,North,0,0.0,0.0,66,0.00,,,0.00,WUHU216HW,2013-04-02 10:25:00,
2013-04-02 05:29:00,23.4,13.7,30.15,North,0,0.0,0.0,66,0.00,,,0.00,WUHU216HW,2013-04-02 10:29:00,
2013-04-02 05:30:00,23.4,13.7,30.15,North,0,0.0,0.0,66,0.00,,,0.00,WUHU216HW,2013-04-02 10:30:00,
2013-04-02 05:34:00,23.4,13.7,30.15,North,0,0.0,0.0,66,0.00,,,0.00,WUHU216HW,2013-04-02 10:34:00,
2013-04-02 05:36:00,23.4,13.7,30.15,North,0,0.0,0.0,66,0.00,,,0.00,WUHU216HW,2013-04-02 10:36:00,
2013-04-02 05:39:00,23.2,13.5,30.15,North,0,0.0,0.0,66,0.00,,,0.00,WUHU216HW,2013-04-02 10:39:00,
2013-04-02 05:41:00,23.0,13.3,30.16,North,0,0.0,0.0,66,0.00,,,0.00,WUHU216HW,2013-04-02 10:41:00,
2013-04-02 05:44:00,22.9,13.1,30.16,North,0,0.0,0.0,66,0.00,,,0.00,WUHU216HW,2013-04-02 10:44:00,
2013-04-02 05:46:00,22.7,13.0,30.15,North,0,0.0,0.0,66,0.00,,,0.00,WUHU216HW,2013-04-02 10:46:00,
2013-04-02 05:47:00,22.7,13.0,30.16,North,0,0.0,0.0,66,0.00,,,0.00,WUHU216HW,2013-04-02 10:47:00,
2013-04-02 05:49:00,22.7,13.0,30.16,North,0,0.0,0.0,66,0.00,,,0.00,WUHU216HW,2013-04-02 10:49:00,
2013-04-02 05:50:00,22.7,13.0,30.16,North,0,0.0,0.0,66,0.00,,,0.00,WUHU216HW,2013-04-02 10:50:00,
2013-04-02 05:51:00,22.7,13.0,30.15,North,0,0.0,0.0,66,0.00,,,0.00,WUHU216HW,2013-04-02 10:51:00,
2013-04-02 05:52:00,22.7,13.0,30.16,North,0,0.0,0.0,66,0.00,,,0.00,WUHU216HW,2013-04-02 10:52:00,
2013-04-02 05:54:00,22.5,12.8,30.16,North,0,0.0,0.0,66,0.00,,,0.00,WUHU216HW,2013-04-02 10:54:00,
2013-04-02 05:55:00,22.5,12.8,30.16,North,0,0.0,0.0,66,0.00,,,0.00,WUHU216HW,2013-04-02 10:55:00,
2013-04-02 05:56:00,22.5,12.8,30.16,North,0,0.0,0.0,66,0.00,,,0.00,WUHU216HW,2013-04-02 10:56:00,
2013-04-02 05:57:00,22.5,12.8,30.16,North,0,0.0,0.0,66,0.00,,,0.00,WUHU216HW,2013-04-02 10:57:00,
2013-04-02 05:59:00,22.5,13.1,30.16,North,0,0.0,0.0,67,0.00,,,0.00,WUHU216HW,2013-04-02 10:59:00,
2013-04-02 06:00:00,22.5,13.1,30.16,North,0,0.0,0.0,67,0.00,,,0.00,WUHU216HW,2013-04-02 11:00:00,
2013-04-02 06:02:00,22.5,13.1,30.16,North,0,0.0,0.0,67,0.00,,,0.00,WUHU216HW,2013-04-02 11:02:00,
2013-04-02 06:05:00,22.5,13.1,30.16,North,0,0.0,0.0,67,0.00,,,0.00,WUHU216HW,2013-04-02 11:05:00,
2013-04-02 06:07:00,22.5,13.1,30.16,North,0,0.0,0.0,67,0.00,,,0.00,WUHU216HW,2013-04-02 11:07:00,
2013-04-02 06:10:00,22.5,13.1,30.16,North,0,0.0,0.0,67,0.00,,,0.00,WUHU216HW,2013-04-02 11:10:00,
2013-04-02 06:12:00,22.7,13.3,30.16,North,0,0.0,0.0,67,0.00,,,0.00,WUHU216HW,2013-04-02 11:12:00,
2013-04-02 06:15:00,22.7,13.7,30.16,North,0,0.0,0.0,68,0.00,,,0.00,WUHU216HW,2013-04-02 11:15:00,
2013-04-02 06:17:00,22.9,13.9,30.16,North,0,0.0,0.0,68,0.00,,,0.00,WUHU216HW,2013-04-02 11:17:00,
2013-04-02 06:20:00,22.9,13.9,30.17,North,0,0.0,0.0,68,0.00,,,0.00,WUHU216HW,2013-04-02 11:20:00,
2013-04-02 06:21:00,23.0,13.7,30.16,North,0,0.0,0.0,67,0.00,,,0.00,WUHU216HW,2013-04-02 11:21:00,
2013-04-02 06:22:00,23.0,13.7,30.16,North,0,0.0,0.0,67,0.00,,,0.00,WUHU216HW,2013-04-02 11:22:00,
2013-04-02 06:25:00,23.0,13.7,30.16,North,0,0.0,0.0,67,0.00,,,0.00,WUHU216HW,2013-04-02 11:25:00,
2013-04-02 06:26:00,23.0,13.7,30.17,North,0,0.0,0.0,67,0.00,,,0.00,WUHU216HW,2013-04-02 11:26:00,
2013-04-02 06:27:00,23.2,13.9,30.17,North,0,0.0,0.0,67,0.00,,,0.00,WUHU216HW,2013-04-02 11:27:00,
2013-04-02 06:28:00,23.2,13.9,30.17,North,0,0.0,0.0,67,0.00,,,0.00,WUHU216HW,2013-04-02 11:28:00,
2013-04-02 06:30:00,23.2,13.9,30.17,North,0,0.0,0.0,67,0.00,,,0.00,WUHU216HW,2013-04-02 11:30:00,
2013-04-02 06:31:00,23.2,13.9,30.17,North,0,0.0,0.0,67,0.00,,,0.00,WUHU216HW,2013-04-02 11:31:00,
2013-04-02 06:33:00,23.2,13.9,30.17,North,0,0.0,0.0,67,0.00,,,0.00,WUHU216HW,2013-04-02 11:33:00,
2013-04-02 06:35:00,23.2,13.9,30.17,North,0,0.0,0.0,67,0.00,,,0.00,WUHU216HW,2013-04-02 11:35:00,
2013-04-02 06:36:00,23.4,14.1,30.17,North,0,0.0,0.0,67,0.00,,,0.00,WUHU216HW,2013-04-02 11:36:00,
2013-04-02 06:38:00,23.4,14.1,30.17,North,0,0.0,0.0,67,0.00,,,0.00,WUHU216HW,2013-04-02 11:38:00,
2013-04-02 06:40:00,23.4,14.1,30.17,North,0,0.0,0.0,67,0.00,,,0.00,WUHU216HW,2013-04-02 11:40:00,
2013-04-02 06:41:00,23.4,14.1,30.17,North,0,0.0,0.0,67,0.00,,,0.00,WUHU216HW,2013-04-02 11:41:00,
2013-04-02 06:43:00,23.4,14.1,30.17,North,0,0.0,0.0,67,0.00,,,0.00,WUHU216HW,2013-04-02 11:43:00,
2013-04-02 06:45:00,23.4,14.1,30.17,North,0,0.0,0.0,67,0.00,,,0.00,WUHU216HW,2013-04-02 11:45:00,
2013-04-02 06:46:00,23.4,14.1,30.17,North,0,0.0,0.0,67,0.00,,,0.00,WUHU216HW,2013-04-02 11:46:00,
2013-04-02 06:48:00,23.4,14.1,30.17,North,0,0.0,0.0,67,0.00,,,0.00,WUHU216HW,2013-04-02 11:48:00,
2013-04-02 06:49:00,23.4,14.1,30.17,North,0,0.0,0.0,67,0.00,,,0.00,WUHU216HW,2013-04-02 11:49:00,
2013-04-02 06:51:00,23.4,14.1,30.17,North,0,0.0,0.0,67,0.00,,,0.00,WUHU216HW,2013-04-02 11:51:00,
2013-04-02 06:53:00,23.4,14.1,30.18,North,0,0.0,0.0,67,0.00,,,0.00,WUHU216HW,2013-04-02 11:53:00,
2013-04-02 06:54:00,23.4,14.1,30.18,North,0,0.0,0.0,67,0.00,,,0.00,WUHU216HW,2013-04-02 11:54:00,
2013-04-02 06:57:00,23.4,14.1,30.18,North,0,0.0,0.0,67,0.00,,,0.00,WUHU216HW,2013-04-02 11:57:00,
2013-04-02 06:58:00,23.4,14.4,30.18,North,0,0.0,0.0,68,0.00,,,0.00,WUHU216HW,2013-04-02 11:58:00,
2013-04-02 06:59:00,23.4,14.4,30.18,North,0,0.0,0.0,68,0.00,,,0.00,WUHU216HW,2013-04-02 11:59:00,
2013-04-02 07:02:00,23.4,14.4,30.18,North,0,0.0,0.0,68,0.00,,,0.00,WUHU216HW,2013-04-02 12:02:00,
2013-04-02 07:04:00,23.4,14.4,30.18,North,0,0.0,0.0,68,0.00,,,0.00,WUHU216HW,2013-04-02 12:04:00,
2013-04-02 07:07:00,23.6,14.6,30.18,North,0,0.0,0.0,68,0.00,,,0.00,WUHU216HW,2013-04-02 12:07:00,
2013-04-02 07:09:00,23.6,14.6,30.18,North,0,0.0,0.0,68,0.00,,,0.00,WUHU216HW,2013-04-02 12:09:00,
2013-04-02 07:12:00,23.8,14.7,30.18,North,0,0.0,0.0,68,0.00,,,0.00,WUHU216HW,2013-04-02 12:12:00,
2013-04-02 07:13:00,23.8,14.7,30.18,North,0,0.0,0.0,68,0.00,,,0.00,WUHU216HW,2013-04-02 12:13:00,
2013-04-02 07:14:00,23.9,14.9,30.18,North,0,0.0,0.0,68,0.00,,,0.00,WUHU216HW,2013-04-02 12:14:00,
2013-04-02 07:15:00,23.9,14.9,30.18,North,0,0.0,0.0,68,0.00,,,0.00,WUHU216HW,2013-04-02 12:15:00,
2013-04-02 07:18:00,24.1,15.0,30.18,North,0,0.0,0.0,68,0.00,,,0.00,WUHU216HW,2013-04-02 12:18:00,
2013-04-02 07:19:00,24.1,15.0,30.18,North,0,0.0,0.0,68,0.00,,,0.00,WUHU216HW,2013-04-02 12:19:00,
2013-04-02 07:20:00,24.1,15.0,30.18,North,0,0.0,0.0,68,0.00,,,0.00,WUHU216HW,2013-04-02 12:20:00,
2013-04-02 07:23:00,24.3,15.2,30.19,North,0,0.0,0.0,68,0.00,,,0.00,WUHU216HW,2013-04-02 12:23:00,
2013-04-02 07:24:00,24.5,15.4,30.19,North,0,0.0,0.0,68,0.00,,,0.00,WUHU216HW,2013-04-02 12:24:00,
2013-04-02 07:25:00,24.5,15.4,30.19,North,0,0.0,0.0,68,0.00,,,0.00,WUHU216HW,2013-04-02 12:25:00,
2013-04-02 07:28:00,24.7,15.6,30.19,North,0,0.0,0.0,68,0.00,,,0.00,WUHU216HW,2013-04-02 12:28:00,
2013-04-02 07:29:00,24.8,15.7,30.19,North,0,0.0,0.0,68,0.00,,,0.00,WUHU216HW,2013-04-02 12:29:00,
2013-04-02 07:30:00,24.8,15.7,30.19,North,0,0.0,0.0,68,0.00,,,0.00,WUHU216HW,2013-04-02 12:30:00,
2013-04-02 07:33:00,25.0,15.8,30.19,North,0,0.0,0.0,68,0.00,,,0.00,WUHU216HW,2013-04-02 12:33:00,
2013-04-02 07:34:00,25.2,16.0,30.20,North,0,0.0,0.0,68,0.00,,,0.00,WUHU216HW,2013-04-02 12:34:00,
2013-04-02 07:35:00,25.2,16.0,30.20,North,0,0.0,0.0,68,0.00,,,0.00,WUHU216HW,2013-04-02 12:35:00,
2013-04-02 07:38:00,25.4,16.2,30.20,North,0,0.0,0.0,68,0.00,,,0.00,WUHU216HW,2013-04-02 12:38:00,
2013-04-02 07:39:00,25.4,16.2,30.20,North,0,0.0,0.0,68,0.00,,,0.00,WUHU216HW,2013-04-02 12:39:00,
2013-04-02 07:40:00,25.6,16.4,30.20,North,0,0.0,0.0,68,0.00,,,0.00,WUHU216HW,2013-04-02 12:40:00,
2013-04-02 07:43:00,25.6,16.4,30.20,North,0,0.0,0.0,68,0.00,,,0.00,WUHU216HW,2013-04-02 12:43:00,
2013-04-02 07:44:00,25.6,16.4,30.20,North,0,0.0,0.0,68,0.00,,,0.00,WUHU216HW,2013-04-02 12:44:00,
2013-04-02 07:45:00,25.7,16.2,30.20,North,0,0.0,0.0,67,0.00,,,0.00,WUHU216HW,2013-04-02 12:45:00,
2013-04-02 07:48:00,25.9,16.4,30.20,North,0,0.0,0.0,67,0.00,,,0.00,WUHU216HW,2013-04-02 12:48:00,
2013-04-02 07:49:00,25.9,16.4,30.20,North,0,0.0,0.0,67,0.00,,,0.00,WUHU216HW,2013-04-02 12:49:00,
2013-04-02 07:50:00,26.1,16.6,30.20,North,0,0.0,0.0,67,0.00,,,0.00,WUHU216HW,2013-04-02 12:50:00,
2013-04-02 07:53:00,26.3,16.7,30.20,North,0,0.0,0.0,67,0.00,,,0.00,WUHU216HW,2013-04-02 12:53:00,
2013-04-02 07:54:00,26.3,16.7,30.20,North,0,0.0,0.0,67,0.00,,,0.00,WUHU216HW,2013-04-02 12:54:00,
2013-04-02 07:55:00,26.3,16.7,30.20,North,0,0.0,0.0,67,0.00,,,0.00,WUHU216HW,2013-04-02 12:55:00,
2013-04-02 07:56:00,26.5,16.9,30.20,North,0,0.0,0.0,67,0.00,,,0.00,WUHU216HW,2013-04-02 12:56:00,
2013-04-02 07:58:00,26.8,17.3,30.20,North,0,0.0,0.0,67,0.00,,,0.00,WUHU216HW,2013-04-02 12:58:00,
2013-04-02 07:59:00,26.8,17.3,30.20,North,0,0.0,0.0,67,0.00,,,0.00,WUHU216HW,2013-04-02 12:59:00,
2013-04-02 08:00:00,27.0,17.5,30.20,North,0,0.0,0.0,67,0.00,,,0.00,WUHU216HW,2013-04-02 13:00:00,
2013-04-02 08:01:00,27.0,17.1,30.20,North,0,0.0,0.0,66,0.00,,,0.00,WUHU216HW,2013-04-02 13:01:00,
2013-04-02 08:03:00,27.0,17.1,30.20,North,0,0.0,0.0,66,0.00,,,0.00,WUHU216HW,2013-04-02 13:03:00,
2013-04-02 08:04:00,27.0,17.1,30.20,North,0,0.0,0.0,66,0.00,,,0.00,WUHU216HW,2013-04-02 13:04:00,
2013-04-02 08:05:00,27.0,17.1,30.20,North,0,0.0,0.0,66,0.00,,,0.00,WUHU216HW,2013-04-02 13:05:00,
2013-04-02 08:06:00,27.0,17.1,30.20,North,0,0.0,0.0,66,0.00,,,0.00,WUHU216HW,2013-04-02 13:06:00,
2013-04-02 08:08:00,27.2,16.9,30.20,North,0,0.0,0.0,65,0.00,,,0.00,WUHU216HW,2013-04-02 13:08:00,
2013-04-02 08:09:00,27.2,16.9,30.20,North,0,0.0,0.0,65,0.00,,,0.00,WUHU216HW,2013-04-02 13:09:00,
2013-04-02 08:10:00,27.2,16.9,30.20,North,0,0.0,0.0,65,0.00,,,0.00,WUHU216HW,2013-04-02 13:10:00,
2013-04-02 08:12:00,27.4,17.1,30.20,North,0,0.0,0.0,65,0.00,,,0.00,WUHU216HW,2013-04-02 13:12:00,
2013-04-02 08:13:00,27.4,17.1,30.20,North,0,0.0,0.0,65,0.00,,,0.00,WUHU216HW,2013-04-02 13:13:00,
2013-04-02 08:14:00,27.4,17.1,30.20,North,0,0.0,0.0,65,0.00,,,0.00,WUHU216HW,2013-04-02 13:14:00,
2013-04-02 08:15:00,27.5,17.3,30.20,North,0,0.0,0.0,65,0.00,,,0.00,WUHU216HW,2013-04-02 13:15:00,
2013-04-02 08:18:00,27.5,17.3,30.20,North,0,0.0,0.0,65,0.00,,,0.00,WUHU216HW,2013-04-02 13:18:00,
2013-04-02 08:19:00,27.7,17.1,30.20,North,0,0.0,0.0,64,0.00,,,0.00,WUHU216HW,2013-04-02 13:19:00,
2013-04-02 08:20:00,27.7,17.5,30.20,North,0,0.0,0.0,65,0.00,,,0.00,WUHU216HW,2013-04-02 13:20:00,
2013-04-02 08:23:00,27.9,17.3,30.20,North,0,0.0,0.0,64,0.00,,,0.00,WUHU216HW,2013-04-02 13:23:00,
2013-04-02 08:24:00,27.9,17.3,30.20,North,0,0.0,0.0,64,0.00,,,0.00,WUHU216HW,2013-04-02 13:24:00,
2013-04-02 08:25:00,28.1,17.5,30.20,North,0,0.0,0.0,64,0.00,,,0.00,WUHU216HW,2013-04-02 13:25:00,
2013-04-02 08:28:00,28.4,17.8,30.20,North,0,0.0,0.0,64,0.00,,,0.00,WUHU216HW,2013-04-02 13:28:00,
2013-04-02 08:29:00,28.4,17.8,30.20,North,0,0.0,0.0,64,0.00,,,0.00,WUHU216HW,2013-04-02 13:29:00,
2013-04-02 08:30:00,28.4,17.8,30.20,North,0,0.0,0.0,64,0.00,,,0.00,WUHU216HW,2013-04-02 13:30:00,
2013-04-02 08:33:00,28.8,17.8,30.20,North,0,0.0,0.0,63,0.00,,,0.00,WUHU216HW,2013-04-02 13:33:00,
2013-04-02 08:34:00,29.0,17.9,30.20,North,0,0.0,0.0,63,0.00,,,0.00,WUHU216HW,2013-04-02 13:34:00,
2013-04-02 08:35:00,29.2,18.1,30.20,North,0,0.0,0.0,63,0.00,,,0.00,WUHU216HW,2013-04-02 13:35:00,
2013-04-02 08:38:00,29.2,17.7,30.20,North,0,0.0,0.0,62,0.00,,,0.00,WUHU216HW,2013-04-02 13:38:00,
2013-04-02 08:39:00,29.2,17.7,30.20,North,0,0.0,0.0,62,0.00,,,0.00,WUHU216HW,2013-04-02 13:39:00,
2013-04-02 08:40:00,29.2,17.7,30.20,North,0,0.0,0.0,62,0.00,,,0.00,WUHU216HW,2013-04-02 13:40:00,
2013-04-02 08:41:00,29.3,17.9,30.20,North,0,0.0,0.0,62,0.00,,,0.00,WUHU216HW,2013-04-02 13:41:00,
2013-04-02 08:43:00,29.5,18.1,30.20,North,0,0.0,0.0,62,0.00,,,0.00,WUHU216HW,2013-04-02 13:43:00,
2013-04-02 08:44:00,29.7,18.3,30.20,North,0,0.0,0.0,62,0.00,,,0.00,WUHU216HW,2013-04-02 13:44:00,
2013-04-02 08:45:00,29.9,18.4,30.20,North,0,0.0,0.0,62,0.00,,,0.00,WUHU216HW,2013-04-02 13:45:00,
2013-04-02 08:46:00,29.9,18.4,30.20,North,0,0.0,0.0,62,0.00,,,0.00,WUHU216HW,2013-04-02 13:46:00,
2013-04-02 08:48:00,29.9,18.4,30.20,North,0,0.0,0.0,62,0.00,,,0.00,WUHU216HW,2013-04-02 13:48:00,
2013-04-02 08:49:00,30.2,18.7,30.20,North,0,0.0,0.0,62,0.00,,,0.00,WUHU216HW,2013-04-02 13:49:00,
2013-04-02 08:50:00,30.4,18.5,30.20,North,0,0.0,0.0,61,0.00,,,0.00,WUHU216HW,2013-04-02 13:50:00,
2013-04-02 08:52:00,30.4,18.5,30.20,North,0,0.0,0.0,61,0.00,,,0.00,WUHU216HW,2013-04-02 13:52:00,
2013-04-02 08:53:00,30.4,18.2,30.20,North,0,0.0,0.0,60,0.00,,,0.00,WUHU216HW,2013-04-02 13:53:00,
2013-04-02 08:55:00,30.6,18.7,30.20,North,0,0.0,0.0,61,0.00,,,0.00,WUHU216HW,2013-04-02 13:55:00,
2013-04-02 08:57:00,30.8,18.5,30.20,North,0,0.0,0.0,60,0.00,,,0.00,WUHU216HW,2013-04-02 13:57:00,
2013-04-02 08:58:00,30.8,18.5,30.20,North,0,0.0,0.0,60,0.00,,,0.00,WUHU216HW,2013-04-02 13:58:00,
2013-04-02 09:00:00,31.1,18.9,30.20,North,0,0.0,0.0,60,0.00,,,0.00,WUHU216HW,2013-04-02 14:00:00,
2013-04-02 09:01:00,31.3,19.1,30.20,North,0,0.0,0.0,60,0.00,,,0.00,WUHU216HW,2013-04-02 14:01:00,
2013-04-02 09:02:00,31.3,19.1,30.20,North,0,0.0,0.0,60,0.00,,,0.00,WUHU216HW,2013-04-02 14:02:00,
2013-04-02 09:03:00,31.5,19.3,30.20,North,0,0.0,0.0,60,0.00,,,0.00,WUHU216HW,2013-04-02 14:03:00,
2013-04-02 09:05:00,31.7,19.0,30.20,North,0,0.0,0.0,59,0.00,,,0.00,WUHU216HW,2013-04-02 14:05:00,
2013-04-02 09:07:00,31.9,18.7,30.20,North,0,0.0,0.0,58,0.00,,,0.00,WUHU216HW,2013-04-02 14:07:00,
2013-04-02 09:08:00,31.9,18.4,30.20,North,0,0.0,0.0,57,0.00,,,0.00,WUHU216HW,2013-04-02 14:08:00,
2013-04-02 09:10:00,32.0,18.6,30.20,North,0,0.0,0.0,57,0.00,,,0.00,WUHU216HW,2013-04-02 14:10:00,
2013-04-02 09:12:00,32.4,19.3,30.20,North,0,0.0,0.0,58,0.00,,,0.00,WUHU216HW,2013-04-02 14:12:00,
2013-04-02 09:14:00,32.9,19.7,30.20,North,0,0.0,0.0,58,0.00,,,0.00,WUHU216HW,2013-04-02 14:14:00,
2013-04-02 09:15:00,32.9,19.7,30.20,North,0,0.0,0.0,58,0.00,,,0.00,WUHU216HW,2013-04-02 14:15:00,
2013-04-02 09:17:00,33.7,20.0,30.21,North,0,0.0,0.0,57,0.00,,,0.00,WUHU216HW,2013-04-02 14:17:00,
2013-04-02 09:18:00,33.8,19.7,30.20,North,0,0.0,0.0,56,0.00,,,0.00,WUHU216HW,2013-04-02 14:18:00,
2013-04-02 09:20:00,33.8,19.7,30.21,North,0,0.0,0.0,56,0.00,,,0.00,WUHU216HW,2013-04-02 14:20:00,
2013-04-02 09:23:00,33.8,19.3,30.20,North,0,0.0,0.0,55,0.00,,,0.00,WUHU216HW,2013-04-02 14:23:00,
2013-04-02 09:25:00,33.7,19.1,30.21,North,0,0.0,0.0,55,0.00,,,0.00,WUHU216HW,2013-04-02 14:25:00,
2013-04-02 09:28:00,33.7,19.1,30.21,North,0,0.0,0.0,55,0.00,,,0.00,WUHU216HW,2013-04-02 14:28:00,
2013-04-02 09:30:00,33.8,18.8,30.21,North,0,0.0,0.0,54,0.00,,,0.00,WUHU216HW,2013-04-02 14:30:00,
2013-04-02 09:33:00,34.0,19.0,30.21,North,0,0.0,0.0,54,0.00,,,0.00,WUHU216HW,2013-04-02 14:33:00,
2013-04-02 09:35:00,34.2,19.2,30.21,North,0,0.0,0.0,54,0.00,,,0.00,WUHU216HW,2013-04-02 14:35:00,
2013-04-02 09:36:00,34.2,19.2,30.21,North,0,0.0,0.0,54,0.00,,,0.00,WUHU216HW,2013-04-02 14:36:00,
2013-04-02 09:38:00,34.4,18.9,30.21,North,0,0.0,0.0,53,0.00,,,0.00,WUHU216HW,2013-04-02 14:38:00,
2013-04-02 09:40:00,34.9,19.9,30.21,North,0,0.0,0.0,54,0.00,,,0.00,WUHU216HW,2013-04-02 14:40:00,
2013-04-02 09:41:00,34.9,19.9,30.21,North,0,0.0,0.0,54,0.00,,,0.00,WUHU216HW,2013-04-02 14:41:00,
2013-04-02 09:43:00,35.1,19.6,30.21,North,0,0.0,0.0,53,0.00,,,0.00,WUHU216HW,2013-04-02 14:43:00,
2013-04-02 09:44:00,35.1,19.3,30.21,North,0,0.0,0.0,52,0.00,,,0.00,WUHU216HW,2013-04-02 14:44:00,
2013-04-02 09:45:00,35.1,19.3,30.21,North,0,0.0,0.0,52,0.00,,,0.00,WUHU216HW,2013-04-02 14:45:00,
2013-04-02 09:46:00,35.1,19.3,30.21,North,0,0.0,0.0,52,0.00,,,0.00,WUHU216HW,2013-04-02 14:46:00,
2013-04-02 09:48:00,35.3,19.5,30.21,North,0,0.0,0.0,52,0.00,,,0.00,WUHU216HW,2013-04-02 14:48:00,
2013-04-02 09:49:00,35.6,19.8,30.21,North,0,0.0,0.0,52,0.00,,,0.00,WUHU216HW,2013-04-02 14:49:00,
2013-04-02 09:51:00,35.8,19.9,30.21,North,0,0.0,0.0,52,0.00,,,0.00,WUHU216HW,2013-04-02 14:51:00,
2013-04-02 09:54:00,36.2,20.3,30.21,North,0,0.0,0.0,52,0.00,,,0.00,WUHU216HW,2013-04-02 14:54:00,
2013-04-02 09:55:00,36.2,20.3,30.21,North,0,0.0,0.0,52,0.00,,,0.00,WUHU216HW,2013-04-02 14:55:00,
2013-04-02 09:56:00,36.4,20.0,30.21,North,0,0.0,0.0,51,0.00,,,0.00,WUHU216HW,2013-04-02 14:56:00,
2013-04-02 09:57:00,36.2,19.8,30.21,North,0,0.0,0.0,51,0.00,,,0.00,WUHU216HW,2013-04-02 14:57:00,
2013-04-02 09:59:00,36.4,20.0,30.20,North,0,0.0,0.0,51,0.00,,,0.00,WUHU216HW,2013-04-02 14:59:00,
2013-04-02 10:00:00,36.4,20.0,30.21,North,0,0.0,0.0,51,0.00,,,0.00,WUHU216HW,2013-04-02 15:00:00,
2013-04-02 10:01:00,36.5,20.2,30.21,North,0,0.0,0.0,51,0.00,,,0.00,WUHU216HW,2013-04-02 15:01:00,
2013-04-02 10:02:00,36.4,19.0,30.20,North,0,0.0,0.0,49,0.00,,,0.00,WUHU216HW,2013-04-02 15:02:00,
2013-04-02 10:04:00,36.2,18.9,30.21,North,0,0.0,0.0,49,0.00,,,0.00,WUHU216HW,2013-04-02 15:04:00,
2013-04-02 10:05:00,35.8,18.5,30.21,North,0,0.0,0.0,49,0.00,,,0.00,WUHU216HW,2013-04-02 15:05:00,
2013-04-02 10:06:00,35.6,18.4,30.20,North,0,0.0,0.0,49,0.00,,,0.00,WUHU216HW,2013-04-02 15:06:00,
2013-04-02 10:08:00,35.6,18.4,30.21,North,0,0.0,0.0,49,0.00,,,0.00,WUHU216HW,2013-04-02 15:08:00,
2013-04-02 10:09:00,35.8,19.1,30.21,North,0,0.0,0.0,50,0.00,,,0.00,WUHU216HW,2013-04-02 15:09:00,
2013-04-02 10:10:00,35.8,19.1,30.21,North,0,0.0,0.0,50,0.00,,,0.00,WUHU216HW,2013-04-02 15:10:00,
2013-04-02 10:11:00,36.0,19.3,30.21,North,0,0.0,0.0,50,0.00,,,0.00,WUHU216HW,2013-04-02 15:11:00,
2013-04-02 10:13:00,36.2,19.4,30.21,North,0,0.0,0.0,50,0.00,,,0.00,WUHU216HW,2013-04-02 15:13:00,
2013-04-02 10:14:00,36.4,20.0,30.21,North,0,0.0,0.0,51,0.00,,,0.00,WUHU216HW,2013-04-02 15:14:00,
2013-04-02 10:16:00,36.4,18.6,30.21,North,0,0.0,0.0,48,0.00,,,0.00,WUHU216HW,2013-04-02 15:16:00,
2013-04-02 10:18:00,36.4,18.6,30.21,WNW,293,3.4,3.4,48,0.00,,,0.00,WUHU216HW,2013-04-02 15:18:00,
2013-04-02 10:19:00,36.2,18.4,30.21,NNW,338,3.1,3.4,48,0.00,,,0.00,WUHU216HW,2013-04-02 15:19:00,
2013-04-02 10:22:00,36.2,18.4,30.21,NW,315,3.4,5.4,48,0.00,,,0.00,WUHU216HW,2013-04-02 15:22:00,
2013-04-02 10:23:00,36.2,17.8,30.21,SSW,203,2.5,5.4,47,0.00,,,0.00,WUHU216HW,2013-04-02 15:23:00,
2013-04-02 10:24:00,36.2,18.4,30.21,NW,315,3.1,5.4,48,0.00,,,0.00,WUHU216HW,2013-04-02 15:24:00,
2013-04-02 10:27:00,36.5,18.6,30.21,NW,315,6.0,6.0,48,0.00,,,0.00,WUHU216HW,2013-04-02 15:27:00,
2013-04-02 10:28:00,36.7,18.8,30.21,WSW,248,4.3,6.0,48,0.00,,,0.00,WUHU216HW,2013-04-02 15:28:00,
2013-04-02 10:29:00,37.1,19.2,30.21,West,270,4.7,6.0,48,0.00,,,0.00,WUHU216HW,2013-04-02 15:29:00,
2013-04-02 10:32:00,37.3,18.8,30.21,NW,315,4.7,6.0,47,0.00,,,0.00,WUHU216HW,2013-04-02 15:32:00,
2013-04-02 10:33:00,37.4,19.0,30.21,NNW,338,3.6,6.0,47,0.00,,,0.00,WUHU216HW,2013-04-02 15:33:00,
2013-04-02 10:34:00,37.6,19.1,30.21,WNW,293,1.1,6.0,47,0.00,,,0.00,WUHU216HW,2013-04-02 15:34:00,
2013-04-02 10:38:00,37.3,17.2,30.21,SW,225,3.1,6.3,44,0.00,,,0.00,WUHU216HW,2013-04-02 15:38:00,
2013-04-02 10:39:00,37.1,17.6,30.21,West,270,3.4,6.3,45,0.00,,,0.00,WUHU216HW,2013-04-02 15:39:00,
2013-04-02 10:43:00,36.5,17.1,30.21,West,270,5.6,6.3,45,0.00,,,0.00,WUHU216HW,2013-04-02 15:43:00,
2013-04-02 10:44:00,36.7,17.8,30.21,NNW,338,4.0,6.3,46,0.00,,,0.00,WUHU216HW,2013-04-02 15:44:00,
2013-04-02 10:46:00,36.9,17.5,30.21,NNW,338,4.0,5.6,45,0.00,,,0.00,WUHU216HW,2013-04-02 15:46:00,
2013-04-02 10:48:00,37.4,17.9,30.21,NNW,338,4.0,5.6,45,0.00,,,0.00,WUHU216HW,2013-04-02 15:48:00,
2013-04-02 10:50:00,37.8,18.3,30.21,NW,315,4.3,5.6,45,0.00,,,0.00,WUHU216HW,2013-04-02 15:50:00,
2013-04-02 10:51:00,38.0,18.4,30.21,NNW,338,5.4,5.6,45,0.00,,,0.00,WUHU216HW,2013-04-02 15:51:00,
2013-04-02 10:54:00,38.2,18.5,30.21,NW,315,6.7,6.7,45,0.00,,,0.00,WUHU216HW,2013-04-02 15:54:00,
2013-04-02 10:56:00,38.3,18.7,30.21,WSW,248,5.1,6.7,45,0.00,,,0.00,WUHU216HW,2013-04-02 15:56:00,
2013-04-02 10:57:00,38.3,18.7,30.21,NW,315,5.4,6.7,45,0.00,,,0.00,WUHU216HW,2013-04-02 15:57:00,
2013-04-02 10:59:00,38.3,18.7,30.21,WSW,248,0.4,6.7,45,0.00,,,0.00,WUHU216HW,2013-04-02 15:59:00,
2013-04-02 11:01:00,38.2,18.5,30.21,WSW,248,2.5,6.7,45,0.00,,,0.00,WUHU216HW,2013-04-02 16:01:00,
2013-04-02 11:03:00,38.0,17.9,30.21,NW,315,9.2,9.2,44,0.00,,,0.00,WUHU216HW,2013-04-02 16:03:00,
2013-04-02 11:04:00,38.0,18.4,30.21,NW,315,6.9,9.2,45,0.00,,,0.00,WUHU216HW,2013-04-02 16:04:00,
2013-04-02 11:06:00,38.2,18.5,30.21,NW,315,6.9,9.2,45,0.00,,,0.00,WUHU216HW,2013-04-02 16:06:00,
2013-04-02 11:08:00,38.5,18.9,30.21,NW,315,6.9,9.2,45,0.00,,,0.00,WUHU216HW,2013-04-02 16:08:00,
2013-04-02 11:09:00,38.5,18.9,30.21,North,0,0.0,9.2,45,0.00,,,0.00,WUHU216HW,2013-04-02 16:09:00,
2013-04-02 11:12:00,38.7,19.1,30.21,North,0,0.0,6.9,45,0.00,,,0.00,WUHU216HW,2013-04-02 16:12:00,
2013-04-02 11:13:00,38.7,19.1,30.21,North,0,0.0,6.9,45,0.00,,,0.00,WUHU216HW,2013-04-02 16:13:00,
2013-04-02 11:14:00,38.7,18.6,30.21,North,0,0.0,6.9,44,0.00,,,0.00,WUHU216HW,2013-04-02 16:14:00,
2013-04-02 11:18:00,39.1,18.8,30.21,North,0,0.0,0.0,44,0.00,,,0.00,WUHU216HW,2013-04-02 16:18:00,
2013-04-02 11:19:00,39.2,19.0,30.21,North,0,0.0,0.0,44,0.00,,,0.00,WUHU216HW,2013-04-02 16:19:00,
2013-04-02 11:23:00,39.6,19.4,30.21,North,0,0.0,0.0,44,0.00,,,0.00,WUHU216HW,2013-04-02 16:23:00,
2013-04-02 11:24:00,39.4,18.6,30.21,North,0,0.0,0.0,43,0.00,,,0.00,WUHU216HW,2013-04-02 16:24:00,
2013-04-02 11:28:00,39.2,18.5,30.21,North,0,0.0,0.0,43,0.00,,,0.00,WUHU216HW,2013-04-02 16:28:00,
2013-04-02 11:29:00,39.6,19.4,30.21,North,0,0.0,0.0,44,0.00,,,0.00,WUHU216HW,2013-04-02 16:29:00,
2013-04-02 11:33:00,40.0,19.6,30.21,North,0,0.0,0.0,44,0.00,,,0.00,WUHU216HW,2013-04-02 16:33:00,
2013-04-02 11:34:00,40.0,19.6,30.21,North,0,0.0,0.0,44,0.00,,,0.00,WUHU216HW,2013-04-02 16:34:00,
2013-04-02 11:35:00,40.0,19.6,30.21,North,0,0.0,0.0,44,0.00,,,0.00,WUHU216HW,2013-04-02 16:35:00,
2013-04-02 11:39:00,39.4,18.6,30.21,North,0,0.0,0.0,43,0.00,,,0.00,WUHU216HW,2013-04-02 16:39:00,
2013-04-02 11:40:00,39.4,18.6,30.21,North,0,0.0,0.0,43,0.00,,,0.00,WUHU216HW,2013-04-02 16:40:00,
2013-04-02 11:44:00,40.1,19.3,30.21,North,0,0.0,0.0,43,0.00,,,0.00,WUHU216HW,2013-04-02 16:44:00,
2013-04-02 11:45:00,40.5,20.2,30.21,North,0,0.0,0.0,44,0.00,,,0.00,WUHU216HW,2013-04-02 16:45:00,
2013-04-02 11:49:00,41.2,19.7,30.20,North,0,0.0,0.0,42,0.00,,,0.00,WUHU216HW,2013-04-02 16:49:00,
2013-04-02 11:50:00,41.2,19.7,30.21,North,0,0.0,0.0,42,0.00,,,0.00,WUHU216HW,2013-04-02 16:50:00,
2013-04-02 11:54:00,41.2,19.7,30.20,North,0,0.0,0.0,42,0.00,,,0.00,WUHU216HW,2013-04-02 16:54:00,
2013-04-02 11:55:00,41.0,19.6,30.21,North,0,0.0,0.0,42,0.00,,,0.00,WUHU216HW,2013-04-02 16:55:00,
2013-04-02 11:59:00,41.2,20.3,30.20,North,0,0.0,0.0,43,0.00,,,0.00,WUHU216HW,2013-04-02 16:59:00,
2013-04-02 12:00:00,41.4,19.9,30.20,North,0,0.0,0.0,42,0.00,,,0.00,WUHU216HW,2013-04-02 17:00:00,
2013-04-02 12:04:00,41.6,20.1,30.20,North,0,0.0,0.0,42,0.00,,,0.00,WUHU216HW,2013-04-02 17:04:00,
2013-04-02 12:08:00,42.1,20.1,30.20,North,0,0.0,0.0,41,0.00,,,0.00,WUHU216HW,2013-04-02 17:08:00,
2013-04-02 12:09:00,42.1,20.1,30.20,North,0,0.0,0.0,41,0.00,,,0.00,WUHU216HW,2013-04-02 17:09:00,
2013-04-02 12:13:00,42.1,20.1,30.20,North,0,0.0,0.0,41,0.00,,,0.00,WUHU216HW,2013-04-02 17:13:00,
2013-04-02 12:14:00,42.1,19.5,30.20,North,0,0.0,0.0,40,0.00,,,0.00,WUHU216HW,2013-04-02 17:14:00,
2013-04-02 12:15:00,42.1,19.5,30.20,North,0,0.0,0.0,40,0.00,,,0.00,WUHU216HW,2013-04-02 17:15:00,
2013-04-02 12:18:00,41.9,19.4,30.20,North,0,0.0,0.0,40,0.00,,,0.00,WUHU216HW,2013-04-02 17:18:00,
2013-04-02 12:19:00,41.8,19.2,30.20,North,0,0.0,0.0,40,0.00,,,0.00,WUHU216HW,2013-04-02 17:19:00,
2013-04-02 12:20:00,41.8,19.2,30.20,North,0,0.0,0.0,40,0.00,,,0.00,WUHU216HW,2013-04-02 17:20:00,
2013-04-02 12:23:00,41.8,19.7,30.20,North,0,0.0,0.0,41,0.00,,,0.00,WUHU216HW,2013-04-02 17:23:00,
2013-04-02 12:25:00,41.8,19.2,30.20,North,0,0.0,0.0,40,0.00,,,0.00,WUHU216HW,2013-04-02 17:25:00,
2013-04-02 12:28:00,41.4,18.2,30.20,North,0,0.0,0.0,39,0.00,,,0.00,WUHU216HW,2013-04-02 17:28:00,
2013-04-02 12:30:00,41.2,17.4,30.20,North,0,0.0,0.0,38,0.00,,,0.00,WUHU216HW,2013-04-02 17:30:00,
2013-04-02 12:33:00,41.0,17.9,30.19,North,0,0.0,0.0,39,0.00,,,0.00,WUHU216HW,2013-04-02 17:33:00,
2013-04-02 12:35:00,41.0,17.9,30.19,North,0,0.0,0.0,39,0.00,,,0.00,WUHU216HW,2013-04-02 17:35:00,
2013-04-02 12:39:00,41.9,18.7,30.19,North,0,0.0,0.0,39,0.00,,,0.00,WUHU216HW,2013-04-02 17:39:00,
2013-04-02 12:40:00,42.3,19.7,30.19,North,0,0.0,0.0,40,0.00,,,0.00,WUHU216HW,2013-04-02 17:40:00,
2013-04-02 12:44:00,43.0,19.0,30.19,North,0,0.0,0.0,38,0.00,,,0.00,WUHU216HW,2013-04-02 17:44:00,
2013-04-02 12:45:00,42.8,18.8,30.19,North,0,0.0,0.0,38,0.00,,,0.00,WUHU216HW,2013-04-02 17:45:00,
2013-04-02 12:49:00,42.7,18.6,30.19,North,0,0.0,0.0,38,0.00,,,0.00,WUHU216HW,2013-04-02 17:49:00,
2013-04-02 12:50:00,42.1,18.2,30.19,North,0,0.0,0.0,38,0.00,,,0.00,WUHU216HW,2013-04-02 17:50:00,
2013-04-02 12:51:00,42.1,18.2,30.19,North,0,0.0,0.0,38,0.00,,,0.00,WUHU216HW,2013-04-02 17:51:00,
2013-04-02 12:54:00,41.6,17.7,30.19,North,0,0.0,0.0,38,0.00,,,0.00,WUHU216HW,2013-04-02 17:54:00,
2013-04-02 12:56:00,41.8,17.9,30.19,North,0,0.0,0.0,38,0.00,,,0.00,WUHU216HW,2013-04-02 17:56:00,
2013-04-02 12:59:00,41.2,18.1,30.19,North,0,0.0,0.0,39,0.00,,,0.00,WUHU216HW,2013-04-02 17:59:00,
2013-04-02 13:02:00,41.2,18.1,30.19,North,0,0.0,0.0,39,0.00,,,0.00,WUHU216HW,2013-04-02 18:02:00,
2013-04-02 13:05:00,41.4,16.9,30.19,North,0,0.0,0.0,37,0.00,,,0.00,WUHU216HW,2013-04-02 18:05:00,
2013-04-02 13:07:00,41.8,17.9,30.19,North,0,0.0,0.0,38,0.00,,,0.00,WUHU216HW,2013-04-02 18:07:00,
2013-04-02 13:10:00,42.1,18.8,30.19,North,0,0.0,0.0,39,0.00,,,0.00,WUHU216HW,2013-04-02 18:10:00,
2013-04-02 13:12:00,42.1,18.2,30.18,North,0,0.0,0.0,38,0.00,,,0.00,WUHU216HW,2013-04-02 18:12:00,
2013-04-02 13:15:00,42.7,19.4,30.18,North,0,0.0,0.0,39,0.00,,,0.00,WUHU216HW,2013-04-02 18:15:00,
2013-04-02 13:17:00,42.8,20.2,30.18,North,0,0.0,0.0,40,0.00,,,0.00,WUHU216HW,2013-04-02 18:17:00,
2013-04-02 13:18:00,42.8,20.2,30.18,North,0,0.0,0.0,40,0.00,,,0.00,WUHU216HW,2013-04-02 18:18:00,
2013-04-02 13:20:00,43.0,19.6,30.18,North,0,0.0,0.0,39,0.00,,,0.00,WUHU216HW,2013-04-02 18:20:00,
2013-04-02 13:22:00,42.8,18.2,30.19,North,0,0.0,0.0,37,0.00,,,0.00,WUHU216HW,2013-04-02 18:22:00,
2013-04-02 13:23:00,42.8,18.2,30.19,North,0,0.0,0.0,37,0.00,,,0.00,WUHU216HW,2013-04-02 18:23:00,
2013-04-02 13:25:00,42.5,17.8,30.19,North,0,0.0,0.0,37,0.00,,,0.00,WUHU216HW,2013-04-02 18:25:00,
2013-04-02 13:27:00,41.8,17.2,30.19,North,0,0.0,0.0,37,0.00,,,0.00,WUHU216HW,2013-04-02 18:27:00,
2013-04-02 13:28:00,41.8,17.2,30.19,North,0,0.0,0.0,37,0.00,,,0.00,WUHU216HW,2013-04-02 18:28:00,
2013-04-02 13:31:00,41.6,17.7,30.18,North,0,0.0,0.0,38,0.00,,,0.00,WUHU216HW,2013-04-02 18:31:00,
2013-04-02 13:33:00,41.6,17.7,30.19,North,0,0.0,0.0,38,0.00,,,0.00,WUHU216HW,2013-04-02 18:33:00,
2013-04-02 13:36:00,41.9,18.0,30.18,North,0,0.0,0.0,38,0.00,,,0.00,WUHU216HW,2013-04-02 18:36:00,
2013-04-02 13:38:00,42.1,18.2,30.19,North,0,0.0,0.0,38,0.00,,,0.00,WUHU216HW,2013-04-02 18:38:00,
2013-04-02 13:42:00,42.5,19.2,30.18,North,0,0.0,0.0,39,0.00,,,0.00,WUHU216HW,2013-04-02 18:42:00,
2013-04-02 13:43:00,42.7,19.4,30.19,North,0,0.0,0.0,39,0.00,,,0.00,WUHU216HW,2013-04-02 18:43:00,
2013-04-02 13:47:00,43.0,19.0,30.18,North,0,0.0,0.0,38,0.00,,,0.00,WUHU216HW,2013-04-02 18:47:00,
2013-04-02 13:48:00,43.0,17.6,30.18,North,0,0.0,0.0,36,0.00,,,0.00,WUHU216HW,2013-04-02 18:48:00,
2013-04-02 13:52:00,43.2,18.5,30.18,North,0,0.0,0.0,37,0.00,,,0.00,WUHU216HW,2013-04-02 18:52:00,
2013-04-02 13:53:00,43.2,17.8,30.18,North,0,0.0,0.0,36,0.00,,,0.00,WUHU216HW,2013-04-02 18:53:00,
2013-04-02 13:57:00,43.0,17.0,30.18,North,0,0.0,0.0,35,0.00,,,0.00,WUHU216HW,2013-04-02 18:57:00,
2013-04-02 13:58:00,43.0,17.6,30.19,North,0,0.0,0.0,36,0.00,,,0.00,WUHU216HW,2013-04-02 18:58:00,
2013-04-02 13:59:00,43.2,18.5,30.18,North,0,0.0,0.0,37,0.00,,,0.00,WUHU216HW,2013-04-02 18:59:00,
2013-04-02 14:02:00,42.8,16.8,30.19,North,0,0.0,0.0,35,0.00,,,0.00,WUHU216HW,2013-04-02 19:02:00,
2013-04-02 14:03:00,42.7,17.4,30.19,North,0,0.0,0.0,36,0.00,,,0.00,WUHU216HW,2013-04-02 19:03:00,
2013-04-02 14:04:00,42.7,17.4,30.19,North,0,0.0,0.0,36,0.00,,,0.00,WUHU216HW,2013-04-02 19:04:00,
2013-04-02 14:08:00,42.3,17.0,30.19,North,0,0.0,0.0,36,0.00,,,0.00,WUHU216HW,2013-04-02 19:08:00,
2013-04-02 14:09:00,42.3,17.0,30.19,North,0,0.0,0.0,36,0.00,,,0.00,WUHU216HW,2013-04-02 19:09:00,
2013-04-02 14:13:00,42.1,16.2,30.19,North,0,0.0,0.0,35,0.00,,,0.00,WUHU216HW,2013-04-02 19:13:00,
2013-04-02 14:14:00,42.1,16.2,30.19,North,0,0.0,0.0,35,0.00,,,0.00,WUHU216HW,2013-04-02 19:14:00,
2013-04-02 14:18:00,41.6,17.1,30.19,North,0,0.0,0.0,37,0.00,,,0.00,WUHU216HW,2013-04-02 19:18:00,
2013-04-02 14:19:00,41.6,17.1,30.19,North,0,0.0,0.0,37,0.00,,,0.00,WUHU216HW,2013-04-02 19:19:00,
2013-04-02 14:23:00,41.2,16.1,30.19,North,0,0.0,0.0,36,0.00,,,0.00,WUHU216HW,2013-04-02 19:23:00,
2013-04-02 14:24:00,41.0,15.9,30.19,North,0,0.0,0.0,36,0.00,,,0.00,WUHU216HW,2013-04-02 19:24:00,
2013-04-02 14:25:00,41.0,15.9,30.18,North,0,0.0,0.0,36,0.00,,,0.00,WUHU216HW,2013-04-02 19:25:00,
2013-04-02 14:28:00,41.4,16.9,30.19,North,0,0.0,0.0,37,0.00,,,0.00,WUHU216HW,2013-04-02 19:28:00,
2013-04-02 14:29:00,41.6,17.1,30.19,North,0,0.0,0.0,37,0.00,,,0.00,WUHU216HW,2013-04-02 19:29:00,
2013-04-02 14:30:00,41.6,17.1,30.19,North,0,0.0,0.0,37,0.00,,,0.00,WUHU216HW,2013-04-02 19:30:00,
2013-04-02 14:34:00,42.1,18.2,30.19,North,0,0.0,0.0,38,0.00,,,0.00,WUHU216HW,2013-04-02 19:34:00,
2013-04-02 14:35:00,42.3,18.4,30.19,North,0,0.0,0.0,38,0.00,,,0.00,WUHU216HW,2013-04-02 19:35:00,
2013-04-02 14:39:00,42.3,17.7,30.19,North,0,0.0,0.0,37,0.00,,,0.00,WUHU216HW,2013-04-02 19:39:00,
2013-04-02 14:40:00,42.3,17.7,30.19,North,0,0.0,0.0,37,0.00,,,0.00,WUHU216HW,2013-04-02 19:40:00,
2013-04-02 14:44:00,41.9,17.4,30.19,North,0,0.0,0.0,37,0.00,,,0.00,WUHU216HW,2013-04-02 19:44:00,
2013-04-02 14:45:00,41.9,17.4,30.18,North,0,0.0,0.0,37,0.00,,,0.00,WUHU216HW,2013-04-02 19:45:00,
2013-04-02 14:49:00,42.1,16.9,30.18,North,0,0.0,0.0,36,0.00,,,0.00,WUHU216HW,2013-04-02 19:49:00,
2013-04-02 14:50:00,42.1,16.9,30.18,North,0,0.0,0.0,36,0.00,,,0.00,WUHU216HW,2013-04-02 19:50:00,
2013-04-02 14:54:00,42.7,17.4,30.18,North,0,0.0,0.0,36,0.00,,,0.00,WUHU216HW,2013-04-02 19:54:00,
2013-04-02 14:55:00,42.7,17.4,30.18,North,0,0.0,0.0,36,0.00,,,0.00,WUHU216HW,2013-04-02 19:55:00,
2013-04-02 14:56:00,42.7,17.4,30.19,North,0,0.0,0.0,36,0.00,,,0.00,WUHU216HW,2013-04-02 19:56:00,
2013-04-02 14:59:00,43.2,17.8,30.18,North,0,0.0,0.0,36,0.00,,,0.00,WUHU216HW,2013-04-02 19:59:00,
2013-04-02 15:00:00,43.6,19.4,30.18,North,0,0.0,0.0,38,0.00,,,0.00,WUHU216HW,2013-04-02 20:00:00,
2013-04-02 15:01:00,43.6,19.4,30.18,North,0,0.0,0.0,38,0.00,,,0.00,WUHU216HW,2013-04-02 20:01:00,
2013-04-02 15:05:00,44.1,18.6,30.18,North,0,0.0,0.0,36,0.00,,,0.00,WUHU216HW,2013-04-02 20:05:00,
2013-04-02 15:06:00,44.1,19.3,30.18,North,0,0.0,0.0,37,0.00,,,0.00,WUHU216HW,2013-04-02 20:06:00,
2013-04-02 15:10:00,43.7,17.6,30.18,North,0,0.0,0.0,35,0.00,,,0.00,WUHU216HW,2013-04-02 20:10:00,
2013-04-02 15:11:00,43.7,17.6,30.18,North,0,0.0,0.0,35,0.00,,,0.00,WUHU216HW,2013-04-02 20:11:00,
2013-04-02 15:15:00,43.2,17.2,30.18,North,0,0.0,0.0,35,0.00,,,0.00,WUHU216HW,2013-04-02 20:15:00,
2013-04-02 15:16:00,43.2,17.2,30.18,North,0,0.0,0.0,35,0.00,,,0.00,WUHU216HW,2013-04-02 20:16:00,
2013-04-02 15:17:00,43.2,17.2,30.18,North,0,0.0,0.0,35,0.00,,,0.00,WUHU216HW,2013-04-02 20:17:00,
2013-04-02 15:20:00,43.4,17.3,30.18,North,0,0.0,0.0,35,0.00,,,0.00,WUHU216HW,2013-04-02 20:20:00,
2013-04-02 15:22:00,43.4,17.3,30.18,North,0,0.0,0.0,35,0.00,,,0.00,WUHU216HW,2013-04-02 20:22:00,
2013-04-02 15:25:00,42.8,16.2,30.18,North,0,0.0,0.0,34,0.00,,,0.00,WUHU216HW,2013-04-02 20:25:00,
2013-04-02 15:27:00,42.8,16.8,30.18,North,0,0.0,0.0,35,0.00,,,0.00,WUHU216HW,2013-04-02 20:27:00,
2013-04-02 15:28:00,42.7,16.0,30.18,North,0,0.0,0.0,34,0.00,,,0.00,WUHU216HW,2013-04-02 20:28:00,
2013-04-02 15:32:00,42.8,16.8,30.18,North,0,0.0,0.0,35,0.00,,,0.00,WUHU216HW,2013-04-02 20:32:00,
2013-04-02 15:33:00,42.7,16.7,30.18,North,0,0.0,0.0,35,0.00,,,0.00,WUHU216HW,2013-04-02 20:33:00,
2013-04-02 15:37:00,42.8,16.8,30.18,North,0,0.0,0.0,35,0.00,,,0.00,WUHU216HW,2013-04-02 20:37:00,
2013-04-02 15:38:00,42.8,16.8,30.18,North,0,0.0,0.0,35,0.00,,,0.00,WUHU216HW,2013-04-02 20:38:00,
2013-04-02 15:43:00,42.5,15.2,30.18,North,0,0.0,0.0,33,0.00,,,0.00,WUHU216HW,2013-04-02 20:43:00,
2013-04-02 15:48:00,41.6,15.1,30.18,North,0,0.0,0.0,34,0.00,,,0.00,WUHU216HW,2013-04-02 20:48:00,
2013-04-02 15:49:00,41.4,14.9,30.18,North,0,0.0,0.0,34,0.00,,,0.00,WUHU216HW,2013-04-02 20:49:00,
2013-04-02 15:53:00,41.6,16.4,30.18,North,0,0.0,0.0,36,0.00,,,0.00,WUHU216HW,2013-04-02 20:53:00,
2013-04-02 15:54:00,41.4,16.3,30.18,North,0,0.0,0.0,36,0.00,,,0.00,WUHU216HW,2013-04-02 20:54:00,
2013-04-02 15:58:00,41.4,15.6,30.18,North,0,0.0,0.0,35,0.00,,,0.00,WUHU216HW,2013-04-02 20:58:00,
2013-04-02 15:59:00,41.4,16.3,30.18,North,0,0.0,0.0,36,0.00,,,0.00,WUHU216HW,2013-04-02 20:59:00,
2013-04-02 16:00:00,41.4,16.3,30.18,North,0,0.0,0.0,36,0.00,,,0.00,WUHU216HW,2013-04-02 21:00:00,
2013-04-02 16:04:00,41.4,16.3,30.18,North,0,0.0,0.0,36,0.00,,,0.00,WUHU216HW,2013-04-02 21:04:00,
2013-04-02 16:05:00,41.4,16.3,30.18,North,0,0.0,0.0,36,0.00,,,0.00,WUHU216HW,2013-04-02 21:05:00,
2013-04-02 16:09:00,41.4,15.6,30.18,North,0,0.0,0.0,35,0.00,,,0.00,WUHU216HW,2013-04-02 21:09:00,
2013-04-02 16:10:00,41.6,15.8,30.18,North,0,0.0,0.0,35,0.00,,,0.00,WUHU216HW,2013-04-02 21:10:00,
2013-04-02 16:14:00,41.8,15.9,30.18,North,0,0.0,0.0,35,0.00,,,0.00,WUHU216HW,2013-04-02 21:14:00,
2013-04-02 16:15:00,41.9,16.0,30.18,North,0,0.0,0.0,35,0.00,,,0.00,WUHU216HW,2013-04-02 21:15:00,
2013-04-02 16:19:00,42.3,17.0,30.18,North,0,0.0,0.0,36,0.00,,,0.00,WUHU216HW,2013-04-02 21:19:00,
2013-04-02 16:20:00,42.5,17.2,30.18,North,0,0.0,0.0,36,0.00,,,0.00,WUHU216HW,2013-04-02 21:20:00,
2013-04-02 16:24:00,42.5,15.8,30.18,North,0,0.0,0.0,34,0.00,,,0.00,WUHU216HW,2013-04-02 21:24:00,
2013-04-02 16:26:00,42.3,15.0,30.18,North,0,0.0,0.0,33,0.00,,,0.00,WUHU216HW,2013-04-02 21:26:00,
2013-04-02 16:29:00,41.8,15.3,30.19,North,0,0.0,0.0,34,0.00,,,0.00,WUHU216HW,2013-04-02 21:29:00,
2013-04-02 16:31:00,41.4,15.6,30.19,North,0,0.0,0.0,35,0.00,,,0.00,WUHU216HW,2013-04-02 21:31:00,
2013-04-02 16:32:00,41.2,14.8,30.19,North,0,0.0,0.0,34,0.00,,,0.00,WUHU216HW,2013-04-02 21:32:00,
2013-04-02 16:34:00,40.7,14.9,30.19,North,0,0.0,0.0,35,0.00,,,0.00,WUHU216HW,2013-04-02 21:34:00,
2013-04-02 16:36:00,40.7,14.9,30.19,North,0,0.0,0.0,35,0.00,,,0.00,WUHU216HW,2013-04-02 21:36:00,
2013-04-02 16:37:00,40.7,14.9,30.19,North,0,0.0,0.0,35,0.00,,,0.00,WUHU216HW,2013-04-02 21:37:00,
2013-04-02 16:39:00,40.5,14.9,30.19,North,0,0.0,0.0,35,0.00,,,0.00,WUHU216HW,2013-04-02 21:39:00,
2013-04-02 16:42:00,40.5,14.9,30.19,North,0,0.0,0.0,35,0.00,,,0.00,WUHU216HW,2013-04-02 21:42:00,
2013-04-02 16:44:00,40.9,15.8,30.19,North,0,0.0,0.0,36,0.00,,,0.00,WUHU216HW,2013-04-02 21:44:00,
2013-04-02 16:47:00,41.0,15.3,30.19,North,0,0.0,0.0,35,0.00,,,0.00,WUHU216HW,2013-04-02 21:47:00,
2013-04-02 16:49:00,41.4,15.6,30.19,North,0,0.0,0.0,35,0.00,,,0.00,WUHU216HW,2013-04-02 21:49:00,
2013-04-02 16:52:00,41.6,15.8,30.19,North,0,0.0,0.0,35,0.00,,,0.00,WUHU216HW,2013-04-02 21:52:00,
2013-04-02 16:53:00,41.8,15.9,30.19,North,0,0.0,0.0,35,0.00,,,0.00,WUHU216HW,2013-04-02 21:53:00,
2013-04-02 16:55:00,41.8,15.9,30.19,North,0,0.0,0.0,35,0.00,,,0.00,WUHU216HW,2013-04-02 21:55:00,
2013-04-02 16:57:00,41.8,15.9,30.19,North,0,0.0,0.0,35,0.00,,,0.00,WUHU216HW,2013-04-02 21:57:00,
2013-04-02 16:58:00,41.8,15.9,30.19,North,0,0.0,0.0,35,0.00,,,0.00,WUHU216HW,2013-04-02 21:58:00,
2013-04-02 17:00:00,41.9,16.0,30.19,North,0,0.0,0.0,35,0.00,,,0.00,WUHU216HW,2013-04-02 22:00:00,
2013-04-02 17:02:00,41.9,16.0,30.19,North,0,0.0,0.0,35,0.00,,,0.00,WUHU216HW,2013-04-02 22:02:00,
2013-04-02 17:03:00,41.9,14.8,30.19,North,0,0.0,0.0,33,0.00,,,0.00,WUHU216HW,2013-04-02 22:03:00,
2013-04-02 17:05:00,41.8,15.9,30.19,North,0,0.0,0.0,35,0.00,,,0.00,WUHU216HW,2013-04-02 22:05:00,
2013-04-02 17:08:00,41.6,15.8,30.19,North,0,0.0,0.0,35,0.00,,,0.00,WUHU216HW,2013-04-02 22:08:00,
2013-04-02 17:10:00,41.6,15.8,30.19,North,0,0.0,0.0,35,0.00,,,0.00,WUHU216HW,2013-04-02 22:10:00,
2013-04-02 17:13:00,41.6,15.8,30.19,North,0,0.0,0.0,35,0.00,,,0.00,WUHU216HW,2013-04-02 22:13:00,
2013-04-02 17:14:00,41.4,15.6,30.19,North,0,0.0,0.0,35,0.00,,,0.00,WUHU216HW,2013-04-02 22:14:00,
2013-04-02 17:15:00,41.4,15.6,30.19,North,0,0.0,0.0,35,0.00,,,0.00,WUHU216HW,2013-04-02 22:15:00,
2013-04-02 17:18:00,41.4,15.6,30.19,North,0,0.0,0.0,35,0.00,,,0.00,WUHU216HW,2013-04-02 22:18:00,
2013-04-02 17:19:00,41.4,15.6,30.19,North,0,0.0,0.0,35,0.00,,,0.00,WUHU216HW,2013-04-02 22:19:00,
2013-04-02 17:20:00,41.4,15.6,30.19,North,0,0.0,0.0,35,0.00,,,0.00,WUHU216HW,2013-04-02 22:20:00,
2013-04-02 17:24:00,41.4,15.6,30.19,North,0,0.0,0.0,35,0.00,,,0.00,WUHU216HW,2013-04-02 22:24:00,
2013-04-02 17:25:00,41.4,15.6,30.19,North,0,0.0,0.0,35,0.00,,,0.00,WUHU216HW,2013-04-02 22:25:00,
2013-04-02 17:29:00,41.6,15.8,30.19,North,0,0.0,0.0,35,0.00,,,0.00,WUHU216HW,2013-04-02 22:29:00,
2013-04-02 17:30:00,41.6,15.8,30.19,North,0,0.0,0.0,35,0.00,,,0.00,WUHU216HW,2013-04-02 22:30:00,
2013-04-02 17:31:00,41.6,15.8,30.19,North,0,0.0,0.0,35,0.00,,,0.00,WUHU216HW,2013-04-02 22:31:00,
2013-04-02 17:34:00,41.4,15.6,30.19,North,0,0.0,0.0,35,0.00,,,0.00,WUHU216HW,2013-04-02 22:34:00,
2013-04-02 17:35:00,41.4,15.6,30.19,North,0,0.0,0.0,35,0.00,,,0.00,WUHU216HW,2013-04-02 22:35:00,
2013-04-02 17:36:00,41.2,15.5,30.19,North,0,0.0,0.0,35,0.00,,,0.00,WUHU216HW,2013-04-02 22:36:00,
2013-04-02 17:39:00,41.2,15.5,30.19,North,0,0.0,0.0,35,0.00,,,0.00,WUHU216HW,2013-04-02 22:39:00,
2013-04-02 17:40:00,41.2,15.5,30.19,North,0,0.0,0.0,35,0.00,,,0.00,WUHU216HW,2013-04-02 22:40:00,
2013-04-02 17:41:00,41.2,15.5,30.19,North,0,0.0,0.0,35,0.00,,,0.00,WUHU216HW,2013-04-02 22:41:00,
2013-04-02 17:44:00,41.0,15.3,30.19,North,0,0.0,0.0,35,0.00,,,0.00,WUHU216HW,2013-04-02 22:44:00,
2013-04-02 17:45:00,41.0,15.3,30.19,North,0,0.0,0.0,35,0.00,,,0.00,WUHU216HW,2013-04-02 22:45:00,
2013-04-02 17:46:00,41.0,15.9,30.19,North,0,0.0,0.0,36,0.00,,,0.00,WUHU216HW,2013-04-02 22:46:00,
2013-04-02 17:49:00,40.7,15.7,30.19,North,0,0.0,0.0,36,0.00,,,0.00,WUHU216HW,2013-04-02 22:49:00,
2013-04-02 17:50:00,40.7,15.7,30.19,North,0,0.0,0.0,36,0.00,,,0.00,WUHU216HW,2013-04-02 22:50:00,
2013-04-02 17:51:00,40.5,15.5,30.19,North,0,0.0,0.0,36,0.00,,,0.00,WUHU216HW,2013-04-02 22:51:00,
2013-04-02 17:54:00,40.3,15.3,30.20,North,0,0.0,0.0,36,0.00,,,0.00,WUHU216HW,2013-04-02 22:54:00,
2013-04-02 17:55:00,40.3,15.3,30.20,North,0,0.0,0.0,36,0.00,,,0.00,WUHU216HW,2013-04-02 22:55:00,
2013-04-02 17:57:00,40.1,15.1,30.20,North,0,0.0,0.0,36,0.00,,,0.00,WUHU216HW,2013-04-02 22:57:00,
2013-04-02 17:59:00,40.0,14.9,30.20,North,0,0.0,0.0,36,0.00,,,0.00,WUHU216HW,2013-04-02 22:59:00,
2013-04-02 18:02:00,40.0,14.9,30.20,North,0,0.0,0.0,36,0.00,,,0.00,WUHU216HW,2013-04-02 23:02:00,
2013-04-02 18:05:00,40.0,14.3,30.20,North,0,0.0,0.0,35,0.00,,,0.00,WUHU216HW,2013-04-02 23:05:00,
2013-04-02 18:07:00,39.8,14.9,30.20,North,0,0.0,0.0,36,0.00,,,0.00,WUHU216HW,2013-04-02 23:07:00,
2013-04-02 18:10:00,39.6,14.7,30.20,North,0,0.0,0.0,36,0.00,,,0.00,WUHU216HW,2013-04-02 23:10:00,
2013-04-02 18:12:00,39.4,14.5,30.20,North,0,0.0,0.0,36,0.00,,,0.00,WUHU216HW,2013-04-02 23:12:00,
2013-04-02 18:15:00,39.2,14.3,30.20,North,0,0.0,0.0,36,0.00,,,0.00,WUHU216HW,2013-04-02 23:15:00,
2013-04-02 18:17:00,39.2,14.3,30.20,North,0,0.0,0.0,36,0.00,,,0.00,WUHU216HW,2013-04-02 23:17:00,
2013-04-02 18:18:00,39.2,14.3,30.20,North,0,0.0,0.0,36,0.00,,,0.00,WUHU216HW,2013-04-02 23:18:00,
2013-04-02 18:20:00,39.1,14.9,30.20,North,0,0.0,0.0,37,0.00,,,0.00,WUHU216HW,2013-04-02 23:20:00,
2013-04-02 18:23:00,39.1,14.9,30.20,North,0,0.0,0.0,37,0.00,,,0.00,WUHU216HW,2013-04-02 23:23:00,
2013-04-02 18:25:00,38.9,14.7,30.21,North,0,0.0,0.0,37,0.00,,,0.00,WUHU216HW,2013-04-02 23:25:00,
2013-04-02 18:28:00,38.7,14.5,30.21,North,0,0.0,0.0,37,0.00,,,0.00,WUHU216HW,2013-04-02 23:28:00,
2013-04-02 18:30:00,38.5,14.3,30.21,North,0,0.0,0.0,37,0.00,,,0.00,WUHU216HW,2013-04-02 23:30:00,
2013-04-02 18:34:00,38.5,14.9,30.21,North,0,0.0,0.0,38,0.00,,,0.00,WUHU216HW,2013-04-02 23:34:00,
2013-04-02 18:35:00,38.5,14.9,30.21,North,0,0.0,0.0,38,0.00,,,0.00,WUHU216HW,2013-04-02 23:35:00,
2013-04-02 18:39:00,38.3,14.9,30.21,North,0,0.0,0.0,38,0.00,,,0.00,WUHU216HW,2013-04-02 23:39:00,
2013-04-02 18:40:00,38.3,14.9,30.21,North,0,0.0,0.0,38,0.00,,,0.00,WUHU216HW,2013-04-02 23:40:00,
2013-04-02 18:44:00,38.2,14.7,30.21,North,0,0.0,0.0,38,0.00,,,0.00,WUHU216HW,2013-04-02 23:44:00,
2013-04-02 18:45:00,38.2,14.7,30.21,North,0,0.0,0.0,38,0.00,,,0.00,WUHU216HW,2013-04-02 23:45:00,
2013-04-02 18:49:00,38.0,14.5,30.21,North,0,0.0,0.0,38,0.00,,,0.00,WUHU216HW,2013-04-02 23:49:00,
2013-04-02 18:51:00,37.8,14.3,30.21,North,0,0.0,0.0,38,0.00,,,0.00,WUHU216HW,2013-04-02 23:51:00,
2013-04-02 18:54:00,37.8,14.9,30.21,North,0,0.0,0.0,39,0.00,,,0.00,WUHU216HW,2013-04-02 23:54:00,
2013-04-02 18:56:00,37.6,14.9,30.21,North,0,0.0,0.0,39,0.00,,,0.00,WUHU216HW,2013-04-02 23:56:00,
2013-04-02 18:59:00,37.6,14.9,30.21,North,0,0.0,0.0,39,0.00,,,0.00,WUHU216HW,2013-04-02 23:59:00,
2013-04-02 19:02:00,37.4,14.7,30.21,North,0,0.0,0.0,39,0.00,,,0.00,WUHU216HW,2013-04-03 00:02:00,
2013-04-02 19:04:00,37.3,14.5,30.21,North,0,0.0,0.0,39,0.00,,,0.00,WUHU216HW,2013-04-03 00:04:00,
2013-04-02 19:05:00,37.1,14.3,30.21,North,0,0.0,0.0,39,0.00,,,0.00,WUHU216HW,2013-04-03 00:05:00,
2013-04-02 19:08:00,37.1,14.3,30.21,North,0,0.0,0.0,39,0.00,,,0.00,WUHU216HW,2013-04-03 00:08:00,
2013-04-02 19:10:00,36.9,14.1,30.21,North,0,0.0,0.0,39,0.00,,,0.00,WUHU216HW,2013-04-03 00:10:00,
2013-04-02 19:13:00,36.7,14.1,30.21,North,0,0.0,0.0,39,0.00,,,0.00,WUHU216HW,2013-04-03 00:13:00,
2013-04-02 19:15:00,36.4,14.3,30.21,North,0,0.0,0.0,40,0.00,,,0.00,WUHU216HW,2013-04-03 00:15:00,
2013-04-02 19:18:00,36.2,14.1,30.21,North,0,0.0,0.0,40,0.00,,,0.00,WUHU216HW,2013-04-03 00:18:00,
2013-04-02 19:20:00,36.0,14.1,30.21,North,0,0.0,0.0,40,0.00,,,0.00,WUHU216HW,2013-04-03 00:20:00,
2013-04-02 19:23:00,35.6,13.7,30.21,North,0,0.0,0.0,40,0.00,,,0.00,WUHU216HW,2013-04-03 00:23:00,
2013-04-02 19:25:00,35.6,13.7,30.21,North,0,0.0,0.0,40,0.00,,,0.00,WUHU216HW,2013-04-03 00:25:00,
2013-04-02 19:27:00,35.6,13.7,30.21,North,0,0.0,0.0,40,0.00,,,0.00,WUHU216HW,2013-04-03 00:27:00,
2013-04-02 19:29:00,35.6,13.7,30.21,North,0,0.0,0.0,40,0.00,,,0.00,WUHU216HW,2013-04-03 00:29:00,
2013-04-02 19:30:00,35.5,13.5,30.21,North,0,0.0,0.0,40,0.00,,,0.00,WUHU216HW,2013-04-03 00:30:00,
2013-04-02 19:32:00,35.5,13.5,30.21,North,0,0.0,0.0,40,0.00,,,0.00,WUHU216HW,2013-04-03 00:32:00,
2013-04-02 19:34:00,35.3,13.3,30.21,North,0,0.0,0.0,40,0.00,,,0.00,WUHU216HW,2013-04-03 00:34:00,
2013-04-02 19:36:00,35.3,13.3,30.21,North,0,0.0,0.0,40,0.00,,,0.00,WUHU216HW,2013-04-03 00:36:00,
2013-04-02 19:38:00,35.3,13.9,30.21,North,0,0.0,0.0,41,0.00,,,0.00,WUHU216HW,2013-04-03 00:38:00,
2013-04-02 19:40:00,35.1,13.7,30.21,North,0,0.0,0.0,41,0.00,,,0.00,WUHU216HW,2013-04-03 00:40:00,
2013-04-02 19:42:00,35.1,13.7,30.21,North,0,0.0,0.0,41,0.00,,,0.00,WUHU216HW,2013-04-03 00:42:00,
2013-04-02 19:43:00,34.9,13.6,30.21,North,0,0.0,0.0,41,0.00,,,0.00,WUHU216HW,2013-04-03 00:43:00,
2013-04-02 19:46:00,34.9,13.6,30.21,North,0,0.0,0.0,41,0.00,,,0.00,WUHU216HW,2013-04-03 00:46:00,
2013-04-02 19:48:00,34.7,13.9,30.21,North,0,0.0,0.0,42,0.00,,,0.00,WUHU216HW,2013-04-03 00:48:00,
2013-04-02 19:49:00,34.7,13.4,30.21,North,0,0.0,0.0,41,0.00,,,0.00,WUHU216HW,2013-04-03 00:49:00,
2013-04-02 19:51:00,34.6,13.2,30.21,North,0,0.0,0.0,41,0.00,,,0.00,WUHU216HW,2013-04-03 00:51:00,
2013-04-02 19:53:00,34.6,13.2,30.21,North,0,0.0,0.0,41,0.00,,,0.00,WUHU216HW,2013-04-03 00:53:00,
2013-04-02 19:54:00,34.6,13.2,30.22,North,0,0.0,0.0,41,0.00,,,0.00,WUHU216HW,2013-04-03 00:54:00,
2013-04-02 19:57:00,34.2,13.4,30.21,North,0,0.0,0.0,42,0.00,,,0.00,WUHU216HW,2013-04-03 00:57:00,
2013-04-02 19:59:00,34.2,13.4,30.22,North,0,0.0,0.0,42,0.00,,,0.00,WUHU216HW,2013-04-03 00:59:00,
2013-04-02 20:02:00,34.2,13.4,30.21,North,0,0.0,0.0,42,0.00,,,0.00,WUHU216HW,2013-04-03 01:02:00,
2013-04-02 20:04:00,34.0,13.2,30.21,North,0,0.0,0.0,42,0.00,,,0.00,WUHU216HW,2013-04-03 01:04:00,
2013-04-02 20:07:00,33.8,13.6,30.22,North,0,0.0,0.0,43,0.00,,,0.00,WUHU216HW,2013-04-03 01:07:00,
2013-04-02 20:09:00,33.8,13.6,30.22,North,0,0.0,0.0,43,0.00,,,0.00,WUHU216HW,2013-04-03 01:09:00,
2013-04-02 20:12:00,33.5,13.8,30.22,North,0,0.0,0.0,44,0.00,,,0.00,WUHU216HW,2013-04-03 01:12:00,
2013-04-02 20:14:00,33.5,13.8,30.22,North,0,0.0,0.0,44,0.00,,,0.00,WUHU216HW,2013-04-03 01:14:00,
2013-04-02 20:17:00,32.9,13.8,30.22,North,0,0.0,0.0,45,0.00,,,0.00,WUHU216HW,2013-04-03 01:17:00,
2013-04-02 20:19:00,32.9,13.8,30.22,North,0,0.0,0.0,45,0.00,,,0.00,WUHU216HW,2013-04-03 01:19:00,
2013-04-02 20:22:00,32.6,13.4,30.23,North,0,0.0,0.0,45,0.00,,,0.00,WUHU216HW,2013-04-03 01:22:00,
2013-04-02 20:24:00,32.6,13.4,30.23,North,0,0.0,0.0,45,0.00,,,0.00,WUHU216HW,2013-04-03 01:24:00,
2013-04-02 20:27:00,32.2,13.6,30.23,North,0,0.0,0.0,46,0.00,,,0.00,WUHU216HW,2013-04-03 01:27:00,
2013-04-02 20:29:00,32.0,13.5,30.23,North,0,0.0,0.0,46,0.00,,,0.00,WUHU216HW,2013-04-03 01:29:00,
2013-04-02 20:30:00,32.0,13.5,30.23,North,0,0.0,0.0,46,0.00,,,0.00,WUHU216HW,2013-04-03 01:30:00,
2013-04-02 20:32:00,31.7,13.7,30.23,North,0,0.0,0.0,47,0.00,,,0.00,WUHU216HW,2013-04-03 01:32:00,
2013-04-02 20:34:00,31.7,13.7,30.22,North,0,0.0,0.0,47,0.00,,,0.00,WUHU216HW,2013-04-03 01:34:00,
2013-04-02 20:35:00,31.5,13.5,30.22,North,0,0.0,0.0,47,0.00,,,0.00,WUHU216HW,2013-04-03 01:35:00,
2013-04-02 20:37:00,31.3,13.3,30.22,North,0,0.0,0.0,47,0.00,,,0.00,WUHU216HW,2013-04-03 01:37:00,
2013-04-02 20:39:00,31.3,13.3,30.23,North,0,0.0,0.0,47,0.00,,,0.00,WUHU216HW,2013-04-03 01:39:00,
2013-04-02 20:40:00,31.3,13.3,30.23,North,0,0.0,0.0,47,0.00,,,0.00,WUHU216HW,2013-04-03 01:40:00,
2013-04-02 20:42:00,31.1,13.7,30.23,North,0,0.0,0.0,48,0.00,,,0.00,WUHU216HW,2013-04-03 01:42:00,
2013-04-02 20:44:00,31.1,13.7,30.23,North,0,0.0,0.0,48,0.00,,,0.00,WUHU216HW,2013-04-03 01:44:00,
2013-04-02 20:45:00,31.0,13.5,30.23,North,0,0.0,0.0,48,0.00,,,0.00,WUHU216HW,2013-04-03 01:45:00,
2013-04-02 20:48:00,31.0,13.5,30.23,North,0,0.0,0.0,48,0.00,,,0.00,WUHU216HW,2013-04-03 01:48:00,
2013-04-02 20:49:00,30.8,13.9,30.23,North,0,0.0,0.0,49,0.00,,,0.00,WUHU216HW,2013-04-03 01:49:00,
2013-04-02 20:50:00,30.8,13.9,30.23,North,0,0.0,0.0,49,0.00,,,0.00,WUHU216HW,2013-04-03 01:50:00,
2013-04-02 20:53:00,30.6,13.7,30.23,North,0,0.0,0.0,49,0.00,,,0.00,WUHU216HW,2013-04-03 01:53:00,
2013-04-02 20:54:00,30.6,13.7,30.23,North,0,0.0,0.0,49,0.00,,,0.00,WUHU216HW,2013-04-03 01:54:00,
2013-04-02 20:55:00,30.6,13.7,30.23,North,0,0.0,0.0,49,0.00,,,0.00,WUHU216HW,2013-04-03 01:55:00,
2013-04-02 20:58:00,30.6,13.7,30.23,North,0,0.0,0.0,49,0.00,,,0.00,WUHU216HW,2013-04-03 01:58:00,
2013-04-02 20:59:00,30.4,14.1,30.23,North,0,0.0,0.0,50,0.00,,,0.00,WUHU216HW,2013-04-03 01:59:00,
2013-04-02 21:01:00,30.4,13.5,30.23,North,0,0.0,0.0,49,0.00,,,0.00,WUHU216HW,2013-04-03 02:01:00,
2013-04-02 21:03:00,30.2,13.3,30.23,North,0,0.0,0.0,49,0.00,,,0.00,WUHU216HW,2013-04-03 02:03:00,
2013-04-02 21:05:00,30.2,13.3,30.23,North,0,0.0,0.0,49,0.00,,,0.00,WUHU216HW,2013-04-03 02:05:00,
2013-04-02 21:07:00,30.2,13.9,30.23,North,0,0.0,0.0,50,0.00,,,0.00,WUHU216HW,2013-04-03 02:07:00,
2013-04-02 21:08:00,30.2,13.9,30.23,North,0,0.0,0.0,50,0.00,,,0.00,WUHU216HW,2013-04-03 02:08:00,
2013-04-02 21:10:00,30.2,13.9,30.23,North,0,0.0,0.0,50,0.00,,,0.00,WUHU216HW,2013-04-03 02:10:00,
2013-04-02 21:12:00,30.2,13.9,30.23,North,0,0.0,0.0,50,0.00,,,0.00,WUHU216HW,2013-04-03 02:12:00,
2013-04-02 21:14:00,30.1,13.7,30.23,North,0,0.0,0.0,50,0.00,,,0.00,WUHU216HW,2013-04-03 02:14:00,
2013-04-02 21:16:00,30.2,13.9,30.23,North,0,0.0,0.0,50,0.00,,,0.00,WUHU216HW,2013-04-03 02:16:00,
2013-04-02 21:18:00,30.1,13.7,30.24,North,0,0.0,0.0,50,0.00,,,0.00,WUHU216HW,2013-04-03 02:18:00,
2013-04-02 21:19:00,30.1,14.1,30.23,North,0,0.0,0.0,51,0.00,,,0.00,WUHU216HW,2013-04-03 02:19:00,
2013-04-02 21:21:00,30.1,14.1,30.24,North,0,0.0,0.0,51,0.00,,,0.00,WUHU216HW,2013-04-03 02:21:00,
2013-04-02 21:23:00,30.1,14.1,30.23,North,0,0.0,0.0,51,0.00,,,0.00,WUHU216HW,2013-04-03 02:23:00,
2013-04-02 21:24:00,29.9,14.0,30.24,North,0,0.0,0.0,51,0.00,,,0.00,WUHU216HW,2013-04-03 02:24:00,
2013-04-02 21:26:00,29.9,14.0,30.24,North,0,0.0,0.0,51,0.00,,,0.00,WUHU216HW,2013-04-03 02:26:00,
2013-04-02 21:28:00,29.9,14.0,30.24,North,0,0.0,0.0,51,0.00,,,0.00,WUHU216HW,2013-04-03 02:28:00,
2013-04-02 21:29:00,29.9,14.4,30.24,North,0,0.0,0.0,52,0.00,,,0.00,WUHU216HW,2013-04-03 02:29:00,
2013-04-02 21:31:00,29.9,14.4,30.24,North,0,0.0,0.0,52,0.00,,,0.00,WUHU216HW,2013-04-03 02:31:00,
2013-04-02 21:34:00,29.7,14.2,30.24,North,0,0.0,0.0,52,0.00,,,0.00,WUHU216HW,2013-04-03 02:34:00,
2013-04-02 21:36:00,29.5,14.0,30.24,North,0,0.0,0.0,52,0.00,,,0.00,WUHU216HW,2013-04-03 02:36:00,
2013-04-02 21:39:00,29.2,13.7,30.24,North,0,0.0,0.0,52,0.00,,,0.00,WUHU216HW,2013-04-03 02:39:00,
2013-04-02 21:41:00,29.2,13.7,30.24,North,0,0.0,0.0,52,0.00,,,0.00,WUHU216HW,2013-04-03 02:41:00,
2013-04-02 21:44:00,29.0,13.6,30.24,North,0,0.0,0.0,52,0.00,,,0.00,WUHU216HW,2013-04-03 02:44:00,
2013-04-02 21:45:00,29.0,13.6,30.24,North,0,0.0,0.0,52,0.00,,,0.00,WUHU216HW,2013-04-03 02:45:00,
2013-04-02 21:47:00,29.0,13.6,30.25,North,0,0.0,0.0,52,0.00,,,0.00,WUHU216HW,2013-04-03 02:47:00,
2013-04-02 21:49:00,28.8,13.4,30.25,North,0,0.0,0.0,52,0.00,,,0.00,WUHU216HW,2013-04-03 02:49:00,
2013-04-02 21:50:00,28.8,13.4,30.24,North,0,0.0,0.0,52,0.00,,,0.00,WUHU216HW,2013-04-03 02:50:00,
2013-04-02 21:52:00,28.8,13.8,30.25,North,0,0.0,0.0,53,0.00,,,0.00,WUHU216HW,2013-04-03 02:52:00,
2013-04-02 21:55:00,28.6,13.2,30.25,North,0,0.0,0.0,52,0.00,,,0.00,WUHU216HW,2013-04-03 02:55:00,
2013-04-02 21:57:00,28.6,13.7,30.25,North,0,0.0,0.0,53,0.00,,,0.00,WUHU216HW,2013-04-03 02:57:00,
2013-04-02 22:00:00,28.6,13.7,30.25,North,0,0.0,0.0,53,0.00,,,0.00,WUHU216HW,2013-04-03 03:00:00,
2013-04-02 22:03:00,28.4,13.5,30.25,North,0,0.0,0.0,53,0.00,,,0.00,WUHU216HW,2013-04-03 03:03:00,
2013-04-02 22:05:00,28.4,13.5,30.25,North,0,0.0,0.0,53,0.00,,,0.00,WUHU216HW,2013-04-03 03:05:00,
2013-04-02 22:08:00,28.4,13.5,30.26,North,0,0.0,0.0,53,0.00,,,0.00,WUHU216HW,2013-04-03 03:08:00,
2013-04-02 22:10:00,28.4,13.5,30.26,North,0,0.0,0.0,53,0.00,,,0.00,WUHU216HW,2013-04-03 03:10:00,
2013-04-02 22:11:00,28.3,13.3,30.26,North,0,0.0,0.0,53,0.00,,,0.00,WUHU216HW,2013-04-03 03:11:00,
2013-04-02 22:13:00,28.3,13.7,30.26,North,0,0.0,0.0,54,0.00,,,0.00,WUHU216HW,2013-04-03 03:13:00,
2013-04-02 22:15:00,28.1,13.5,30.26,North,0,0.0,0.0,54,0.00,,,0.00,WUHU216HW,2013-04-03 03:15:00,
2013-04-02 22:16:00,28.1,13.5,30.26,North,0,0.0,0.0,54,0.00,,,0.00,WUHU216HW,2013-04-03 03:16:00,
2013-04-02 22:19:00,28.1,13.5,30.26,North,0,0.0,0.0,54,0.00,,,0.00,WUHU216HW,2013-04-03 03:19:00,
2013-04-02 22:20:00,27.9,13.3,30.26,North,0,0.0,0.0,54,0.00,,,0.00,WUHU216HW,2013-04-03 03:20:00,
2013-04-02 22:21:00,28.1,13.5,30.26,North,0,0.0,0.0,54,0.00,,,0.00,WUHU216HW,2013-04-03 03:21:00,
2013-04-02 22:24:00,27.9,13.3,30.26,North,0,0.0,0.0,54,0.00,,,0.00,WUHU216HW,2013-04-03 03:24:00,
2013-04-02 22:25:00,27.9,13.3,30.26,North,0,0.0,0.0,54,0.00,,,0.00,WUHU216HW,2013-04-03 03:25:00,
2013-04-02 22:26:00,27.9,13.3,30.26,North,0,0.0,0.0,54,0.00,,,0.00,WUHU216HW,2013-04-03 03:26:00,
2013-04-02 22:29:00,27.9,13.3,30.26,North,0,0.0,0.0,54,0.00,,,0.00,WUHU216HW,2013-04-03 03:29:00,
2013-04-02 22:30:00,27.9,13.3,30.26,North,0,0.0,0.0,54,0.00,,,0.00,WUHU216HW,2013-04-03 03:30:00,
2013-04-02 22:32:00,27.9,13.3,30.26,North,0,0.0,0.0,54,0.00,,,0.00,WUHU216HW,2013-04-03 03:32:00,
2013-04-02 22:34:00,27.9,13.3,30.26,North,0,0.0,0.0,54,0.00,,,0.00,WUHU216HW,2013-04-03 03:34:00,
2013-04-02 22:37:00,27.9,13.8,30.26,North,0,0.0,0.0,55,0.00,,,0.00,WUHU216HW,2013-04-03 03:37:00,
2013-04-02 22:40:00,27.7,13.6,30.26,North,0,0.0,0.0,55,0.00,,,0.00,WUHU216HW,2013-04-03 03:40:00,
2013-04-02 22:42:00,27.7,13.6,30.27,North,0,0.0,0.0,55,0.00,,,0.00,WUHU216HW,2013-04-03 03:42:00,
2013-04-02 22:43:00,27.7,13.6,30.27,North,0,0.0,0.0,55,0.00,,,0.00,WUHU216HW,2013-04-03 03:43:00,
2013-04-02 22:45:00,27.7,13.6,30.26,North,0,0.0,0.0,55,0.00,,,0.00,WUHU216HW,2013-04-03 03:45:00,
2013-04-02 22:48:00,27.7,13.6,30.26,North,0,0.0,0.0,55,0.00,,,0.00,WUHU216HW,2013-04-03 03:48:00,
2013-04-02 22:50:00,27.7,13.6,30.26,North,0,0.0,0.0,55,0.00,,,0.00,WUHU216HW,2013-04-03 03:50:00,
2013-04-02 22:53:00,27.7,13.6,30.26,North,0,0.0,0.0,55,0.00,,,0.00,WUHU216HW,2013-04-03 03:53:00,
2013-04-02 22:54:00,27.7,13.6,30.26,North,0,0.0,0.0,55,0.00,,,0.00,WUHU216HW,2013-04-03 03:54:00,
2013-04-02 22:55:00,27.7,13.6,30.26,North,0,0.0,0.0,55,0.00,,,0.00,WUHU216HW,2013-04-03 03:55:00,
2013-04-02 22:58:00,27.5,13.4,30.26,North,0,0.0,0.0,55,0.00,,,0.00,WUHU216HW,2013-04-03 03:58:00,
2013-04-02 23:00:00,27.5,13.4,30.26,North,0,0.0,0.0,55,0.00,,,0.00,WUHU216HW,2013-04-03 04:00:00,
2013-04-02 23:05:00,27.4,13.2,30.26,North,0,0.0,0.0,55,0.00,,,0.00,WUHU216HW,2013-04-03 04:05:00,
2013-04-02 23:10:00,27.4,13.2,30.26,North,0,0.0,0.0,55,0.00,,,0.00,WUHU216HW,2013-04-03 04:10:00,
2013-04-02 23:15:00,27.2,13.1,30.26,North,0,0.0,0.0,55,0.00,,,0.00,WUHU216HW,2013-04-03 04:15:00,
2013-04-02 23:16:00,27.4,13.2,30.26,North,0,0.0,0.0,55,0.00,,,0.00,WUHU216HW,2013-04-03 04:16:00,
2013-04-02 23:20:00,27.2,13.5,30.26,North,0,0.0,0.0,56,0.00,,,0.00,WUHU216HW,2013-04-03 04:20:00,
2013-04-02 23:22:00,27.2,13.5,30.26,North,0,0.0,0.0,56,0.00,,,0.00,WUHU216HW,2013-04-03 04:22:00,
2013-04-02 23:23:00,27.2,13.5,30.26,North,0,0.0,0.0,56,0.00,,,0.00,WUHU216HW,2013-04-03 04:23:00,
2013-04-02 23:25:00,27.0,13.3,30.26,North,0,0.0,0.0,56,0.00,,,0.00,WUHU216HW,2013-04-03 04:25:00,
2013-04-02 23:26:00,27.0,13.3,30.26,North,0,0.0,0.0,56,0.00,,,0.00,WUHU216HW,2013-04-03 04:26:00,
2013-04-02 23:27:00,27.0,13.3,30.25,North,0,0.0,0.0,56,0.00,,,0.00,WUHU216HW,2013-04-03 04:27:00,
2013-04-02 23:28:00,27.0,13.3,30.25,North,0,0.0,0.0,56,0.00,,,0.00,WUHU216HW,2013-04-03 04:28:00,
2013-04-02 23:31:00,27.0,13.3,30.25,North,0,0.0,0.0,56,0.00,,,0.00,WUHU216HW,2013-04-03 04:31:00,
2013-04-02 23:32:00,27.0,13.3,30.26,North,0,0.0,0.0,56,0.00,,,0.00,WUHU216HW,2013-04-03 04:32:00,
2013-04-02 23:33:00,27.0,13.3,30.26,North,0,0.0,0.0,56,0.00,,,0.00,WUHU216HW,2013-04-03 04:33:00,
2013-04-02 23:36:00,27.0,13.7,30.26,North,0,0.0,0.0,57,0.00,,,0.00,WUHU216HW,2013-04-03 04:36:00,
2013-04-02 23:37:00,26.8,13.5,30.26,North,0,0.0,0.0,57,0.00,,,0.00,WUHU216HW,2013-04-03 04:37:00,
2013-04-02 23:38:00,26.8,13.5,30.26,North,0,0.0,0.0,57,0.00,,,0.00,WUHU216HW,2013-04-03 04:38:00,
2013-04-02 23:43:00,26.6,13.3,30.26,North,0,0.0,0.0,57,0.00,,,0.00,WUHU216HW,2013-04-03 04:43:00,
2013-04-02 23:44:00,26.6,13.3,30.27,North,0,0.0,0.0,57,0.00,,,0.00,WUHU216HW,2013-04-03 04:44:00,
2013-04-02 23:48:00,26.6,13.3,30.27,North,0,0.0,0.0,57,0.00,,,0.00,WUHU216HW,2013-04-03 04:48:00,
2013-04-02 23:49:00,26.6,13.3,30.26,North,0,0.0,0.0,57,0.00,,,0.00,WUHU216HW,2013-04-03 04:49:00,
2013-04-02 23:53:00,26.5,13.6,30.26,North,0,0.0,0.0,58,0.00,,,0.00,WUHU216HW,2013-04-03 04:53:00,
2013-04-02 23:54:00,26.5,13.6,30.26,North,0,0.0,0.0,58,0.00,,,0.00,WUHU216HW,2013-04-03 04:54:00,
2013-04-02 23:58:00,26.5,13.6,30.26,North,0,0.0,0.0,58,0.00,,,0.00,WUHU216HW,2013-04-03 04:58:00,
2013-04-02 23:59:00,26.5,13.6,30.26,North,0,0.0,0.0,58,0.00,,,0.00,WUHU216HW,2013-04-03 04:59:00,